Time,TemperatureF,DewpointF,PressureIn,WindDirection,WindDirectionDegrees,WindSpeedMPH,WindSpeedGustMPH,Humidity,HourlyPrecipIn,Conditions,Clouds,dailyrainin,SoftwareType,DateUTC
2013-01-22 00:00:00,11.3,8.4,30.25,North,9,29.0,34.0,88,0.00,,,0.00,Wunderground v.1.15,2013-01-22 05:00:00,
2013-01-22 00:02:00,11.1,8.0,30.25,NNW,333,33.0,34.0,87,0.00,,,0.00,Wunderground v.1.15,2013-01-22 05:02:00,
2013-01-22 00:04:00,11.2,8.3,30.25,NNW,344,35.0,35.0,88,0.00,,,0.00,Wunderground v.1.15,2013-01-22 05:04:00,
2013-01-22 00:06:00,11.1,8.0,30.26,North,355,28.0,35.0,87,0.00,,,0.00,Wunderground v.1.15,2013-01-22 05:06:00,
2013-01-22 00:07:00,10.8,7.4,30.26,North,355,28.0,35.0,86,0.00,,,0.00,Wunderground v.1.15,2013-01-22 05:07:00,
2013-01-22 00:09:00,10.7,7.3,30.25,North,355,33.0,34.0,86,0.00,,,0.00,Wunderground v.1.15,2013-01-22 05:09:00,
2013-01-22 00:11:00,10.7,7.6,30.26,North,350,29.0,34.0,87,0.00,,,0.00,Wunderground v.1.15,2013-01-22 05:11:00,
2013-01-22 00:15:00,11.3,8.4,30.26,NNW,346,26.0,34.0,88,0.00,,,0.00,Wunderground v.1.15,2013-01-22 05:15:00,
2013-01-22 00:16:00,11.0,7.9,30.26,North,349,30.0,34.0,87,0.00,,,0.00,Wunderground v.1.15,2013-01-22 05:16:00,
2013-01-22 00:17:00,11.1,8.0,30.25,NNW,344,29.0,34.0,87,0.00,,,0.00,Wunderground v.1.15,2013-01-22 05:17:00,
2013-01-22 00:19:00,11.0,7.9,30.26,NNW,344,31.0,31.0,87,0.00,,,0.00,Wunderground v.1.15,2013-01-22 05:19:00,
2013-01-22 00:22:00,11.3,8.4,30.25,NNW,348,33.0,35.0,88,0.00,,,0.00,Wunderground v.1.15,2013-01-22 05:22:00,
2013-01-22 00:23:00,11.2,8.1,30.26,North,350,28.0,35.0,87,0.00,,,0.00,Wunderground v.1.15,2013-01-22 05:23:00,
2013-01-22 00:24:00,11.6,9.0,30.26,NNW,344,30.0,35.0,89,0.00,,,0.00,Wunderground v.1.15,2013-01-22 05:24:00,
2013-01-22 00:28:00,11.0,8.1,30.25,North,349,30.0,30.0,88,0.00,,,0.00,Wunderground v.1.15,2013-01-22 05:28:00,
2013-01-22 00:29:00,10.7,7.8,30.26,North,9,23.0,30.0,88,0.00,,,0.00,Wunderground v.1.15,2013-01-22 05:29:00,
2013-01-22 00:31:00,10.7,8.1,30.25,North,9,32.0,32.0,89,0.00,,,0.00,Wunderground v.1.15,2013-01-22 05:31:00,
2013-01-22 00:37:00,10.3,7.2,30.25,NNW,344,32.0,34.0,87,0.00,,,0.00,Wunderground v.1.15,2013-01-22 05:37:00,
2013-01-22 00:38:00,10.6,7.7,30.25,North,11,27.0,30.0,88,0.00,,,0.00,Wunderground v.1.15,2013-01-22 05:38:00,
2013-01-22 00:43:00,10.4,7.6,30.26,NNW,338,28.0,34.0,88,0.00,,,0.00,Wunderground v.1.15,2013-01-22 05:43:00,
2013-01-22 00:44:00,10.5,7.6,30.26,NNW,344,33.0,34.0,88,0.00,,,0.00,Wunderground v.1.15,2013-01-22 05:44:00,
2013-01-22 00:46:00,10.5,7.9,30.25,NNW,336,30.0,34.0,89,0.00,,,0.00,Wunderground v.1.15,2013-01-22 05:46:00,
2013-01-22 00:48:00,10.7,8.1,30.26,North,355,31.0,31.0,89,0.00,,,0.00,Wunderground v.1.15,2013-01-22 05:48:00,
2013-01-22 00:54:00,10.8,7.7,30.26,North,355,26.0,33.0,87,0.00,,,0.00,Wunderground v.1.15,2013-01-22 05:54:00,
2013-01-22 00:55:00,10.8,7.7,30.26,NNW,347,31.0,33.0,87,0.00,,,0.00,Wunderground v.1.15,2013-01-22 05:55:00,
2013-01-22 00:59:00,10.9,7.5,30.26,NNW,344,33.0,33.0,86,0.00,,,0.00,Wunderground v.1.15,2013-01-22 05:59:00,
2013-01-22 01:01:00,10.5,7.4,30.26,North,11,32.0,33.0,87,0.00,,,0.00,Wunderground v.1.15,2013-01-22 06:01:00,
2013-01-22 01:02:00,10.4,7.6,30.26,NNW,339,31.0,33.0,88,0.00,,,0.00,Wunderground v.1.15,2013-01-22 06:02:00,
2013-01-22 01:04:00,10.2,7.4,30.26,North,360,31.0,36.0,88,0.00,,,0.00,Wunderground v.1.15,2013-01-22 06:04:00,
2013-01-22 01:07:00,10.3,7.5,30.26,NNW,344,28.0,36.0,88,0.00,,,0.00,Wunderground v.1.15,2013-01-22 06:07:00,
2013-01-22 01:08:00,10.6,7.7,30.26,NNW,341,29.0,30.0,88,0.00,,,0.00,Wunderground v.1.15,2013-01-22 06:08:00,
2013-01-22 01:10:00,10.4,7.3,30.26,NNW,346,29.0,30.0,87,0.00,,,0.00,Wunderground v.1.15,2013-01-22 06:10:00,
2013-01-22 01:14:00,10.4,8.0,30.26,North,349,32.0,33.0,90,0.00,,,0.00,Wunderground v.1.15,2013-01-22 06:14:00,
2013-01-22 01:16:00,10.1,7.8,30.26,North,349,26.0,33.0,90,0.00,,,0.00,Wunderground v.1.15,2013-01-22 06:16:00,
2013-01-22 01:18:00,10.1,7.5,30.25,NNW,340,29.0,29.0,89,0.00,,,0.00,Wunderground v.1.15,2013-01-22 06:18:00,
2013-01-22 01:21:00,10.0,7.4,30.25,NNW,346,34.0,34.0,89,0.00,,,0.00,Wunderground v.1.15,2013-01-22 06:21:00,
2013-01-22 01:22:00,10.1,7.8,30.25,North,355,31.0,34.0,90,0.00,,,0.00,Wunderground v.1.15,2013-01-22 06:22:00,
2013-01-22 01:24:00,10.2,7.6,30.25,NNW,348,29.0,34.0,89,0.00,,,0.00,Wunderground v.1.15,2013-01-22 06:24:00,
2013-01-22 01:27:00,10.3,7.7,30.25,North,355,35.0,35.0,89,0.00,,,0.00,Wunderground v.1.15,2013-01-22 06:27:00,
2013-01-22 01:29:00,10.0,7.2,30.25,North,349,33.0,33.0,88,0.00,,,0.00,Wunderground v.1.15,2013-01-22 06:29:00,
2013-01-22 01:33:00,10.1,7.0,30.25,North,9,31.0,33.0,87,0.00,,,0.00,Wunderground v.1.15,2013-01-22 06:33:00,
2013-01-22 01:34:00,10.1,7.3,30.25,North,350,31.0,33.0,88,0.00,,,0.00,Wunderground v.1.15,2013-01-22 06:34:00,
2013-01-22 01:35:00,10.1,7.0,30.25,North,360,29.0,33.0,87,0.00,,,0.00,Wunderground v.1.15,2013-01-22 06:35:00,
2013-01-22 01:40:00,9.9,6.6,30.26,NNW,348,26.0,33.0,86,0.00,,,0.00,Wunderground v.1.15,2013-01-22 06:40:00,
2013-01-22 01:41:00,9.9,6.8,30.25,North,355,28.0,33.0,87,0.00,,,0.00,Wunderground v.1.15,2013-01-22 06:41:00,
2013-01-22 01:42:00,9.9,7.1,30.25,North,360,32.0,33.0,88,0.00,,,0.00,Wunderground v.1.15,2013-01-22 06:42:00,
2013-01-22 01:47:00,9.9,6.8,30.26,North,360,28.0,33.0,87,0.00,,,0.00,Wunderground v.1.15,2013-01-22 06:47:00,
2013-01-22 01:49:00,9.9,6.8,30.26,NNW,346,30.0,30.0,87,0.00,,,0.00,Wunderground v.1.15,2013-01-22 06:49:00,
2013-01-22 01:52:00,10.0,6.9,30.26,North,355,33.0,33.0,87,0.00,,,0.00,Wunderground v.1.15,2013-01-22 06:52:00,
2013-01-22 01:55:00,9.6,6.3,30.26,North,9,29.0,33.0,86,0.00,,,0.00,Wunderground v.1.15,2013-01-22 06:55:00,
2013-01-22 01:56:00,9.9,6.8,30.26,NNW,340,36.0,36.0,87,0.00,,,0.00,Wunderground v.1.15,2013-01-22 06:56:00,
2013-01-22 01:58:00,9.9,6.8,30.26,NNW,340,31.0,36.0,87,0.00,,,0.00,Wunderground v.1.15,2013-01-22 06:58:00,
2013-01-22 02:00:00,9.8,6.7,30.27,NNW,338,23.0,31.0,87,0.00,,,0.00,Wunderground v.1.15,2013-01-22 07:00:00,
2013-01-22 02:01:00,9.7,6.6,30.27,North,350,22.0,31.0,87,0.00,,,0.00,Wunderground v.1.15,2013-01-22 07:01:00,
2013-01-22 02:02:00,9.7,6.6,30.26,NNW,329,29.0,33.0,87,0.00,,,0.00,Wunderground v.1.15,2013-01-22 07:02:00,
2013-01-22 02:03:00,9.6,6.3,30.26,North,349,23.0,33.0,86,0.00,,,0.00,Wunderground v.1.15,2013-01-22 07:03:00,
2013-01-22 02:05:00,9.7,6.4,30.26,NNW,348,31.0,33.0,86,0.00,,,0.00,Wunderground v.1.15,2013-01-22 07:05:00,
2013-01-22 02:06:00,9.7,6.4,30.26,North,349,28.0,33.0,86,0.00,,,0.00,Wunderground v.1.15,2013-01-22 07:06:00,
2013-01-22 02:07:00,9.9,6.3,30.26,NNW,348,25.0,33.0,85,0.00,,,0.00,Wunderground v.1.15,2013-01-22 07:07:00,
2013-01-22 02:08:00,9.9,6.6,30.26,North,350,30.0,33.0,86,0.00,,,0.00,Wunderground v.1.15,2013-01-22 07:08:00,
2013-01-22 02:10:00,10.1,7.3,30.26,NNW,345,27.0,34.0,88,0.00,,,0.00,Wunderground v.1.15,2013-01-22 07:10:00,
2013-01-22 02:11:00,10.1,7.3,30.26,North,360,30.0,34.0,88,0.00,,,0.00,Wunderground v.1.15,2013-01-22 07:11:00,
2013-01-22 02:12:00,9.9,7.3,30.26,NNW,342,32.0,34.0,89,0.00,,,0.00,Wunderground v.1.15,2013-01-22 07:12:00,
2013-01-22 02:13:00,9.9,7.3,30.26,North,355,34.0,34.0,89,0.00,,,0.00,Wunderground v.1.15,2013-01-22 07:13:00,
2013-01-22 02:15:00,9.8,7.2,30.26,North,350,27.0,34.0,89,0.00,,,0.00,Wunderground v.1.15,2013-01-22 07:15:00,
2013-01-22 02:16:00,9.8,7.2,30.26,NNW,337,30.0,34.0,89,0.00,,,0.00,Wunderground v.1.15,2013-01-22 07:16:00,
2013-01-22 02:18:00,9.9,7.3,30.26,NNW,336,29.0,38.0,89,0.00,,,0.00,Wunderground v.1.15,2013-01-22 07:18:00,
2013-01-22 02:21:00,9.4,6.8,30.26,NNW,346,28.0,30.0,89,0.00,,,0.00,Wunderground v.1.15,2013-01-22 07:21:00,
2013-01-22 02:23:00,9.6,7.0,30.26,NNW,341,24.0,33.0,89,0.00,,,0.00,Wunderground v.1.15,2013-01-22 07:23:00,
2013-01-22 02:24:00,9.8,7.2,30.26,NNW,341,36.0,36.0,89,0.00,,,0.00,Wunderground v.1.15,2013-01-22 07:24:00,
2013-01-22 02:26:00,10.1,7.8,30.26,NNW,340,30.0,36.0,90,0.00,,,0.00,Wunderground v.1.15,2013-01-22 07:26:00,
2013-01-22 02:28:00,10.4,8.0,30.27,NNW,333,28.0,29.0,90,0.00,,,0.00,Wunderground v.1.15,2013-01-22 07:28:00,
2013-01-22 02:29:00,10.1,7.5,30.26,NNW,328,33.0,34.0,89,0.00,,,0.00,Wunderground v.1.15,2013-01-22 07:29:00,
2013-01-22 02:31:00,9.9,7.1,30.26,North,9,32.0,36.0,88,0.00,,,0.00,Wunderground v.1.15,2013-01-22 07:31:00,
2013-01-22 02:34:00,9.9,7.1,30.27,NNW,341,27.0,36.0,88,0.00,,,0.00,Wunderground v.1.15,2013-01-22 07:34:00,
2013-01-22 02:36:00,9.9,7.1,30.27,NW,326,31.0,36.0,88,0.00,,,0.00,Wunderground v.1.15,2013-01-22 07:36:00,
2013-01-22 02:37:00,9.9,6.6,30.27,NNW,335,33.0,36.0,86,0.00,,,0.00,Wunderground v.1.15,2013-01-22 07:37:00,
2013-01-22 02:39:00,9.4,6.3,30.27,NNW,338,27.0,34.0,87,0.00,,,0.00,Wunderground v.1.15,2013-01-22 07:39:00,
2013-01-22 02:40:00,9.3,6.2,30.27,NNW,341,27.0,34.0,87,0.00,,,0.00,Wunderground v.1.15,2013-01-22 07:40:00,
2013-01-22 02:41:00,9.2,5.9,30.27,North,360,28.0,34.0,86,0.00,,,0.00,Wunderground v.1.15,2013-01-22 07:41:00,
2013-01-22 02:42:00,9.1,5.8,30.27,NNW,336,30.0,34.0,86,0.00,,,0.00,Wunderground v.1.15,2013-01-22 07:42:00,
2013-01-22 02:45:00,9.8,7.5,30.27,NNW,337,31.0,34.0,90,0.00,,,0.00,Wunderground v.1.15,2013-01-22 07:45:00,
2013-01-22 02:46:00,9.8,7.5,30.27,NNW,343,29.0,36.0,90,0.00,,,0.00,Wunderground v.1.15,2013-01-22 07:46:00,
2013-01-22 02:47:00,9.7,7.4,30.27,NNW,344,31.0,36.0,90,0.00,,,0.00,Wunderground v.1.15,2013-01-22 07:47:00,
2013-01-22 02:50:00,9.1,6.5,30.27,NNW,340,24.0,32.0,89,0.00,,,0.00,Wunderground v.1.15,2013-01-22 07:50:00,
2013-01-22 02:51:00,9.1,6.5,30.27,North,355,28.0,32.0,89,0.00,,,0.00,Wunderground v.1.15,2013-01-22 07:51:00,
2013-01-22 02:52:00,9.3,6.7,30.27,North,350,33.0,33.0,89,0.00,,,0.00,Wunderground v.1.15,2013-01-22 07:52:00,
2013-01-22 02:55:00,9.2,6.4,30.27,NNW,344,32.0,37.0,88,0.00,,,0.00,Wunderground v.1.15,2013-01-22 07:55:00,
2013-01-22 02:56:00,9.4,6.8,30.27,North,355,26.0,37.0,89,0.00,,,0.00,Wunderground v.1.15,2013-01-22 07:56:00,
2013-01-22 02:57:00,9.3,6.7,30.28,NNW,342,28.0,37.0,89,0.00,,,0.00,Wunderground v.1.15,2013-01-22 07:57:00,
2013-01-22 02:58:00,9.2,6.6,30.27,NNW,346,28.0,37.0,89,0.00,,,0.00,Wunderground v.1.15,2013-01-22 07:58:00,
2013-01-22 03:00:00,9.2,6.6,30.27,North,360,30.0,36.0,89,0.00,,,0.00,Wunderground v.1.15,2013-01-22 08:00:00,
2013-01-22 03:02:00,9.1,6.5,30.28,North,355,29.0,36.0,89,0.00,,,0.00,Wunderground v.1.15,2013-01-22 08:02:00,
2013-01-22 03:03:00,9.1,6.5,30.28,NNW,341,29.0,36.0,89,0.00,,,0.00,Wunderground v.1.15,2013-01-22 08:03:00,
2013-01-22 03:05:00,8.9,6.1,30.27,NNW,339,28.0,36.0,88,0.00,,,0.00,Wunderground v.1.15,2013-01-22 08:05:00,
2013-01-22 03:07:00,8.8,6.0,30.28,NNW,348,24.0,36.0,88,0.00,,,0.00,Wunderground v.1.15,2013-01-22 08:07:00,
2013-01-22 03:08:00,8.8,6.0,30.28,North,349,31.0,36.0,88,0.00,,,0.00,Wunderground v.1.15,2013-01-22 08:08:00,
2013-01-22 03:11:00,8.7,5.9,30.28,NNW,334,29.0,33.0,88,0.00,,,0.00,Wunderground v.1.15,2013-01-22 08:11:00,
2013-01-22 03:12:00,8.9,6.3,30.28,NNW,341,30.0,34.0,89,0.00,,,0.00,Wunderground v.1.15,2013-01-22 08:12:00,
2013-01-22 03:13:00,8.9,6.3,30.28,North,360,26.0,34.0,89,0.00,,,0.00,Wunderground v.1.15,2013-01-22 08:13:00,
2013-01-22 03:14:00,8.9,6.3,30.28,North,355,27.0,34.0,89,0.00,,,0.00,Wunderground v.1.15,2013-01-22 08:14:00,
2013-01-22 03:16:00,9.4,7.1,30.28,NNW,340,32.0,40.0,90,0.00,,,0.00,Wunderground v.1.15,2013-01-22 08:16:00,
2013-01-22 03:18:00,9.6,7.5,30.28,NNW,342,32.0,40.0,91,0.00,,,0.00,Wunderground v.1.15,2013-01-22 08:18:00,
2013-01-22 03:19:00,9.4,7.1,30.28,NNE,15,32.0,32.0,90,0.00,,,0.00,Wunderground v.1.15,2013-01-22 08:19:00,
2013-01-22 03:22:00,9.2,6.9,30.28,NNW,331,32.0,34.0,90,0.00,,,0.00,Wunderground v.1.15,2013-01-22 08:22:00,
2013-01-22 03:23:00,9.2,6.9,30.28,North,350,27.0,34.0,90,0.00,,,0.00,Wunderground v.1.15,2013-01-22 08:23:00,
2013-01-22 03:24:00,9.3,7.0,30.28,NNW,335,31.0,38.0,90,0.00,,,0.00,Wunderground v.1.15,2013-01-22 08:24:00,
2013-01-22 03:27:00,9.4,7.1,30.28,NNW,331,31.0,38.0,90,0.00,,,0.00,Wunderground v.1.15,2013-01-22 08:27:00,
2013-01-22 03:28:00,9.2,6.4,30.28,NNW,333,31.0,31.0,88,0.00,,,0.00,Wunderground v.1.15,2013-01-22 08:28:00,
2013-01-22 03:31:00,9.1,6.0,30.28,NNW,343,28.0,31.0,87,0.00,,,0.00,Wunderground v.1.15,2013-01-22 08:31:00,
2013-01-22 03:32:00,9.4,6.6,30.28,NNW,342,26.0,32.0,88,0.00,,,0.00,Wunderground v.1.15,2013-01-22 08:32:00,
2013-01-22 03:33:00,9.6,7.0,30.28,NNW,331,27.0,32.0,89,0.00,,,0.00,Wunderground v.1.15,2013-01-22 08:33:00,
2013-01-22 03:34:00,9.6,7.0,30.28,NNW,336,25.0,32.0,89,0.00,,,0.00,Wunderground v.1.15,2013-01-22 08:34:00,
2013-01-22 03:36:00,9.2,6.1,30.28,North,355,28.0,34.0,87,0.00,,,0.00,Wunderground v.1.15,2013-01-22 08:36:00,
2013-01-22 03:37:00,9.0,6.2,30.28,NNW,327,28.0,34.0,88,0.00,,,0.00,Wunderground v.1.15,2013-01-22 08:37:00,
2013-01-22 03:39:00,9.0,6.2,30.28,NNW,333,25.0,28.0,88,0.00,,,0.00,Wunderground v.1.15,2013-01-22 08:39:00,
2013-01-22 03:41:00,9.1,6.3,30.29,NNW,329,22.0,30.0,88,0.00,,,0.00,Wunderground v.1.15,2013-01-22 08:41:00,
2013-01-22 03:42:00,9.2,6.1,30.28,NNW,346,29.0,32.0,87,0.00,,,0.00,Wunderground v.1.15,2013-01-22 08:42:00,
2013-01-22 03:44:00,9.6,6.8,30.28,NNW,338,29.0,32.0,88,0.00,,,0.00,Wunderground v.1.15,2013-01-22 08:44:00,
2013-01-22 03:46:00,9.4,6.1,30.29,NNW,339,30.0,33.0,86,0.00,,,0.00,Wunderground v.1.15,2013-01-22 08:46:00,
2013-01-22 03:47:00,9.4,6.3,30.28,NNW,337,29.0,33.0,87,0.00,,,0.00,Wunderground v.1.15,2013-01-22 08:47:00,
2013-01-22 03:49:00,9.3,6.2,30.28,NNW,336,26.0,30.0,87,0.00,,,0.00,Wunderground v.1.15,2013-01-22 08:49:00,
2013-01-22 03:51:00,9.2,6.1,30.29,NNW,331,33.0,34.0,87,0.00,,,0.00,Wunderground v.1.15,2013-01-22 08:51:00,
2013-01-22 03:53:00,9.0,5.7,30.29,NNW,334,28.0,34.0,86,0.00,,,0.00,Wunderground v.1.15,2013-01-22 08:53:00,
2013-01-22 03:54:00,9.0,5.7,30.29,NNW,331,24.0,34.0,86,0.00,,,0.00,Wunderground v.1.15,2013-01-22 08:54:00,
2013-01-22 03:55:00,8.9,5.3,30.29,NNW,340,28.0,34.0,85,0.00,,,0.00,Wunderground v.1.15,2013-01-22 08:55:00,
2013-01-22 03:57:00,9.0,5.7,30.29,NNW,344,25.0,34.0,86,0.00,,,0.00,Wunderground v.1.15,2013-01-22 08:57:00,
2013-01-22 03:58:00,9.1,6.0,30.30,NNW,346,28.0,28.0,87,0.00,,,0.00,Wunderground v.1.15,2013-01-22 08:58:00,
2013-01-22 04:00:00,9.2,6.4,30.29,NNW,342,26.0,33.0,88,0.00,,,0.00,Wunderground v.1.15,2013-01-22 09:00:00,
2013-01-22 04:01:00,9.0,5.7,30.29,NNW,344,25.0,33.0,86,0.00,,,0.00,Wunderground v.1.15,2013-01-22 09:01:00,
2013-01-22 04:02:00,9.2,6.4,30.29,North,9,24.0,33.0,88,0.00,,,0.00,Wunderground v.1.15,2013-01-22 09:02:00,
2013-01-22 04:03:00,9.4,6.6,30.30,NNW,329,28.0,33.0,88,0.00,,,0.00,Wunderground v.1.15,2013-01-22 09:03:00,
2013-01-22 04:05:00,9.3,6.5,30.30,NNW,332,26.0,33.0,88,0.00,,,0.00,Wunderground v.1.15,2013-01-22 09:05:00,
2013-01-22 04:06:00,9.2,6.1,30.29,NNW,348,30.0,33.0,87,0.00,,,0.00,Wunderground v.1.15,2013-01-22 09:06:00,
2013-01-22 04:07:00,9.0,5.9,30.29,NW,326,29.0,33.0,87,0.00,,,0.00,Wunderground v.1.15,2013-01-22 09:07:00,
2013-01-22 04:08:00,9.0,6.4,30.29,NNW,346,33.0,33.0,89,0.00,,,0.00,Wunderground v.1.15,2013-01-22 09:08:00,
2013-01-22 04:10:00,8.8,6.2,30.29,North,355,30.0,34.0,89,0.00,,,0.00,Wunderground v.1.15,2013-01-22 09:10:00,
2013-01-22 04:11:00,8.8,6.2,30.29,NNW,346,32.0,34.0,89,0.00,,,0.00,Wunderground v.1.15,2013-01-22 09:11:00,
2013-01-22 04:12:00,8.8,6.2,30.30,North,350,29.0,34.0,89,0.00,,,0.00,Wunderground v.1.15,2013-01-22 09:12:00,
2013-01-22 04:13:00,8.9,6.3,30.30,NNW,346,24.0,34.0,89,0.00,,,0.00,Wunderground v.1.15,2013-01-22 09:13:00,
2013-01-22 04:16:00,8.9,6.3,30.30,NNW,346,25.0,34.0,89,0.00,,,0.00,Wunderground v.1.15,2013-01-22 09:16:00,
2013-01-22 04:17:00,8.8,6.2,30.29,NNW,336,30.0,34.0,89,0.00,,,0.00,Wunderground v.1.15,2013-01-22 09:17:00,
2013-01-22 04:18:00,8.9,6.6,30.29,North,355,33.0,33.0,90,0.00,,,0.00,Wunderground v.1.15,2013-01-22 09:18:00,
2013-01-22 04:21:00,8.9,6.6,30.29,NNW,336,33.0,34.0,90,0.00,,,0.00,Wunderground v.1.15,2013-01-22 09:21:00,
2013-01-22 04:23:00,9.0,6.7,30.29,NNW,334,34.0,36.0,90,0.00,,,0.00,Wunderground v.1.15,2013-01-22 09:23:00,
2013-01-22 04:24:00,8.9,6.6,30.29,North,360,33.0,36.0,90,0.00,,,0.00,Wunderground v.1.15,2013-01-22 09:24:00,
2013-01-22 04:26:00,8.7,6.4,30.30,North,9,30.0,36.0,90,0.00,,,0.00,Wunderground v.1.15,2013-01-22 09:26:00,
2013-01-22 04:27:00,8.6,6.3,30.29,NNW,346,27.0,36.0,90,0.00,,,0.00,Wunderground v.1.15,2013-01-22 09:27:00,
2013-01-22 04:29:00,8.7,6.4,30.30,NNW,346,31.0,33.0,90,0.00,,,0.00,Wunderground v.1.15,2013-01-22 09:29:00,
2013-01-22 04:32:00,8.5,5.9,30.30,NNW,342,31.0,36.0,89,0.00,,,0.00,Wunderground v.1.15,2013-01-22 09:32:00,
2013-01-22 04:34:00,8.7,5.9,30.30,North,360,31.0,36.0,88,0.00,,,0.00,Wunderground v.1.15,2013-01-22 09:34:00,
2013-01-22 04:37:00,8.4,5.3,30.30,NNW,338,27.0,36.0,87,0.00,,,0.00,Wunderground v.1.15,2013-01-22 09:37:00,
2013-01-22 04:38:00,8.4,5.3,30.30,NNW,342,27.0,36.0,87,0.00,,,0.00,Wunderground v.1.15,2013-01-22 09:38:00,
2013-01-22 04:39:00,8.2,4.9,30.30,NNW,340,28.0,30.0,86,0.00,,,0.00,Wunderground v.1.15,2013-01-22 09:39:00,
2013-01-22 04:43:00,8.4,5.3,30.30,NNW,344,27.0,33.0,87,0.00,,,0.00,Wunderground v.1.15,2013-01-22 09:43:00,
2013-01-22 04:44:00,8.5,5.4,30.30,NNW,344,29.0,33.0,87,0.00,,,0.00,Wunderground v.1.15,2013-01-22 09:44:00,
2013-01-22 04:48:00,8.6,5.5,30.30,NNW,338,36.0,36.0,87,0.00,,,0.00,Wunderground v.1.15,2013-01-22 09:48:00,
2013-01-22 04:49:00,8.6,5.8,30.30,NNW,344,28.0,35.0,88,0.00,,,0.00,Wunderground v.1.15,2013-01-22 09:49:00,
2013-01-22 04:53:00,8.7,5.9,30.30,NNW,345,23.0,35.0,88,0.00,,,0.00,Wunderground v.1.15,2013-01-22 09:53:00,
2013-01-22 04:54:00,8.7,5.9,30.30,NNW,338,23.0,35.0,88,0.00,,,0.00,Wunderground v.1.15,2013-01-22 09:54:00,
2013-01-22 04:55:00,8.6,5.5,30.30,NNW,333,30.0,35.0,87,0.00,,,0.00,Wunderground v.1.15,2013-01-22 09:55:00,
2013-01-22 04:59:00,8.9,6.3,30.30,NNW,332,31.0,36.0,89,0.00,,,0.00,Wunderground v.1.15,2013-01-22 09:59:00,
2013-01-22 05:00:00,8.9,6.1,30.30,NNW,344,29.0,36.0,88,0.00,,,0.00,Wunderground v.1.15,2013-01-22 10:00:00,
2013-01-22 05:04:00,8.8,6.0,30.30,NNW,334,32.0,36.0,88,0.00,,,0.00,Wunderground v.1.15,2013-01-22 10:04:00,
2013-01-22 05:05:00,8.8,6.0,30.30,North,355,31.0,36.0,88,0.00,,,0.00,Wunderground v.1.15,2013-01-22 10:05:00,
2013-01-22 05:09:00,8.3,5.5,30.31,North,355,29.0,30.0,88,0.00,,,0.00,Wunderground v.1.15,2013-01-22 10:09:00,
2013-01-22 05:10:00,8.3,5.5,30.31,NNW,348,30.0,30.0,88,0.00,,,0.00,Wunderground v.1.15,2013-01-22 10:10:00,
2013-01-22 05:11:00,8.6,5.8,30.31,North,350,30.0,31.0,88,0.00,,,0.00,Wunderground v.1.15,2013-01-22 10:11:00,
2013-01-22 05:15:00,8.6,5.5,30.31,NNW,348,25.0,33.0,87,0.00,,,0.00,Wunderground v.1.15,2013-01-22 10:15:00,
2013-01-22 05:16:00,8.7,5.9,30.31,NNW,331,27.0,33.0,88,0.00,,,0.00,Wunderground v.1.15,2013-01-22 10:16:00,
2013-01-22 05:20:00,9.0,5.9,30.31,NNW,334,36.0,36.0,87,0.00,,,0.00,Wunderground v.1.15,2013-01-22 10:20:00,
2013-01-22 05:21:00,8.9,5.8,30.31,NNW,343,26.0,36.0,87,0.00,,,0.00,Wunderground v.1.15,2013-01-22 10:21:00,
2013-01-22 05:25:00,8.6,6.0,30.31,NNW,348,31.0,36.0,89,0.00,,,0.00,Wunderground v.1.15,2013-01-22 10:25:00,
2013-01-22 05:26:00,8.6,6.0,30.31,NNW,331,28.0,36.0,89,0.00,,,0.00,Wunderground v.1.15,2013-01-22 10:26:00,
2013-01-22 05:27:00,8.6,5.8,30.31,NNW,331,32.0,36.0,88,0.00,,,0.00,Wunderground v.1.15,2013-01-22 10:27:00,
2013-01-22 05:30:00,8.5,5.2,30.31,North,9,24.0,33.0,86,0.00,,,0.00,Wunderground v.1.15,2013-01-22 10:30:00,
2013-01-22 05:31:00,8.5,5.2,30.31,NW,322,27.0,33.0,86,0.00,,,0.00,Wunderground v.1.15,2013-01-22 10:31:00,
2013-01-22 05:32:00,8.8,6.0,30.31,NNW,342,27.0,33.0,88,0.00,,,0.00,Wunderground v.1.15,2013-01-22 10:32:00,
2013-01-22 05:33:00,8.8,6.2,30.31,NNW,340,34.0,34.0,89,0.00,,,0.00,Wunderground v.1.15,2013-01-22 10:33:00,
2013-01-22 05:35:00,8.5,5.9,30.31,NNW,339,31.0,34.0,89,0.00,,,0.00,Wunderground v.1.15,2013-01-22 10:35:00,
2013-01-22 05:36:00,8.5,5.9,30.30,NNW,340,29.0,34.0,89,0.00,,,0.00,Wunderground v.1.15,2013-01-22 10:36:00,
2013-01-22 05:37:00,8.7,6.1,30.31,NNW,340,31.0,34.0,89,0.00,,,0.00,Wunderground v.1.15,2013-01-22 10:37:00,
2013-01-22 05:38:00,8.7,6.1,30.31,NNW,346,33.0,34.0,89,0.00,,,0.00,Wunderground v.1.15,2013-01-22 10:38:00,
2013-01-22 05:40:00,8.8,6.0,30.31,North,349,26.0,31.0,88,0.00,,,0.00,Wunderground v.1.15,2013-01-22 10:40:00,
2013-01-22 05:41:00,8.7,5.9,30.30,NNW,345,32.0,33.0,88,0.00,,,0.00,Wunderground v.1.15,2013-01-22 10:41:00,
2013-01-22 05:42:00,8.5,5.7,30.31,NNW,329,30.0,33.0,88,0.00,,,0.00,Wunderground v.1.15,2013-01-22 10:42:00,
2013-01-22 05:43:00,8.5,5.7,30.31,NNW,342,25.0,33.0,88,0.00,,,0.00,Wunderground v.1.15,2013-01-22 10:43:00,
2013-01-22 05:46:00,8.7,6.1,30.31,NNW,344,29.0,33.0,89,0.00,,,0.00,Wunderground v.1.15,2013-01-22 10:46:00,
2013-01-22 05:48:00,8.7,6.1,30.31,NNW,331,33.0,38.0,89,0.00,,,0.00,Wunderground v.1.15,2013-01-22 10:48:00,
2013-01-22 05:51:00,8.5,5.9,30.31,NNW,328,28.0,33.0,89,0.00,,,0.00,Wunderground v.1.15,2013-01-22 10:51:00,
2013-01-22 05:53:00,8.5,5.9,30.31,North,355,30.0,33.0,89,0.00,,,0.00,Wunderground v.1.15,2013-01-22 10:53:00,
2013-01-22 05:56:00,8.8,6.2,30.31,NNW,329,26.0,40.0,89,0.00,,,0.00,Wunderground v.1.15,2013-01-22 10:56:00,
2013-01-22 05:57:00,8.9,6.6,30.31,NNW,331,25.0,40.0,90,0.00,,,0.00,Wunderground v.1.15,2013-01-22 10:57:00,
2013-01-22 05:58:00,8.8,6.2,30.31,NNW,333,27.0,40.0,89,0.00,,,0.00,Wunderground v.1.15,2013-01-22 10:58:00,
2013-01-22 06:02:00,8.9,6.3,30.31,NNW,341,33.0,35.0,89,0.00,,,0.00,Wunderground v.1.15,2013-01-22 11:02:00,
2013-01-22 06:03:00,9.0,6.2,30.31,NNW,341,33.0,35.0,88,0.00,,,0.00,Wunderground v.1.15,2013-01-22 11:03:00,
2013-01-22 06:08:00,8.5,5.4,30.32,North,355,23.0,35.0,87,0.00,,,0.00,Wunderground v.1.15,2013-01-22 11:08:00,
2013-01-22 06:09:00,8.4,5.6,30.32,North,360,27.0,30.0,88,0.00,,,0.00,Wunderground v.1.15,2013-01-22 11:09:00,
2013-01-22 06:13:00,8.5,5.2,30.32,NNW,344,22.0,35.0,86,0.00,,,0.00,Wunderground v.1.15,2013-01-22 11:13:00,
2013-01-22 06:15:00,8.2,4.9,30.32,North,360,27.0,35.0,86,0.00,,,0.00,Wunderground v.1.15,2013-01-22 11:15:00,
2013-01-22 06:18:00,8.2,4.9,30.32,NNW,331,26.0,35.0,86,0.00,,,0.00,Wunderground v.1.15,2013-01-22 11:18:00,
2013-01-22 06:19:00,8.2,4.9,30.32,NNW,344,22.0,29.0,86,0.00,,,0.00,Wunderground v.1.15,2013-01-22 11:19:00,
2013-01-22 06:20:00,8.3,5.0,30.32,NW,315,28.0,29.0,86,0.00,,,0.00,Wunderground v.1.15,2013-01-22 11:20:00,
2013-01-22 06:23:00,8.9,6.3,30.32,North,351,27.0,29.0,89,0.00,,,0.00,Wunderground v.1.15,2013-01-22 11:23:00,
2013-01-22 06:24:00,9.1,6.5,30.31,NNW,337,26.0,34.0,89,0.00,,,0.00,Wunderground v.1.15,2013-01-22 11:24:00,
2013-01-22 06:25:00,9.2,6.6,30.31,NNW,342,32.0,34.0,89,0.00,,,0.00,Wunderground v.1.15,2013-01-22 11:25:00,
2013-01-22 06:28:00,8.7,6.1,30.31,NNW,347,28.0,28.0,89,0.00,,,0.00,Wunderground v.1.15,2013-01-22 11:28:00,
2013-01-22 06:29:00,8.6,5.8,30.31,NNW,331,34.0,34.0,88,0.00,,,0.00,Wunderground v.1.15,2013-01-22 11:29:00,
2013-01-22 06:30:00,8.7,5.9,30.31,NNW,344,33.0,36.0,88,0.00,,,0.00,Wunderground v.1.15,2013-01-22 11:30:00,
2013-01-22 06:33:00,8.7,5.6,30.32,NNW,337,30.0,39.0,87,0.00,,,0.00,Wunderground v.1.15,2013-01-22 11:33:00,
2013-01-22 06:35:00,8.5,5.4,30.32,NNW,334,33.0,39.0,87,0.00,,,0.00,Wunderground v.1.15,2013-01-22 11:35:00,
2013-01-22 06:38:00,8.3,5.0,30.33,NNW,334,25.0,31.0,86,0.00,,,0.00,Wunderground v.1.15,2013-01-22 11:38:00,
2013-01-22 06:40:00,8.3,4.7,30.33,NNW,336,22.0,31.0,85,0.00,,,0.00,Wunderground v.1.15,2013-01-22 11:40:00,
2013-01-22 06:43:00,8.4,5.3,30.32,NNW,344,33.0,38.0,87,0.00,,,0.00,Wunderground v.1.15,2013-01-22 11:43:00,
2013-01-22 06:45:00,8.3,5.0,30.33,NNW,342,29.0,38.0,86,0.00,,,0.00,Wunderground v.1.15,2013-01-22 11:45:00,
2013-01-22 06:49:00,8.4,5.6,30.33,NNW,338,28.0,29.0,88,0.00,,,0.00,Wunderground v.1.15,2013-01-22 11:49:00,
2013-01-22 06:50:00,8.5,5.9,30.33,NNW,346,23.0,29.0,89,0.00,,,0.00,Wunderground v.1.15,2013-01-22 11:50:00,
2013-01-22 06:51:00,8.6,6.0,30.33,NW,316,26.0,29.0,89,0.00,,,0.00,Wunderground v.1.15,2013-01-22 11:51:00,
2013-01-22 06:54:00,8.6,5.3,30.33,NNW,343,25.0,31.0,86,0.00,,,0.00,Wunderground v.1.15,2013-01-22 11:54:00,
2013-01-22 06:55:00,8.5,5.2,30.32,North,355,31.0,32.0,86,0.00,,,0.00,Wunderground v.1.15,2013-01-22 11:55:00,
2013-01-22 06:56:00,8.5,5.2,30.32,North,349,28.0,32.0,86,0.00,,,0.00,Wunderground v.1.15,2013-01-22 11:56:00,
2013-01-22 06:59:00,8.4,4.8,30.33,NNW,338,28.0,29.0,85,0.00,,,0.00,Wunderground v.1.15,2013-01-22 11:59:00,
2013-01-22 07:01:00,8.7,5.4,30.33,NNW,331,29.0,31.0,86,0.00,,,0.00,Wunderground v.1.15,2013-01-22 12:01:00,
2013-01-22 07:02:00,8.7,5.4,30.33,NNW,338,29.0,36.0,86,0.00,,,0.00,Wunderground v.1.15,2013-01-22 12:02:00,
2013-01-22 07:03:00,8.7,5.6,30.33,NNW,334,29.0,36.0,87,0.00,,,0.00,Wunderground v.1.15,2013-01-22 12:03:00,
2013-01-22 07:04:00,8.7,5.6,30.33,NNW,341,30.0,36.0,87,0.00,,,0.00,Wunderground v.1.15,2013-01-22 12:04:00,
2013-01-22 07:06:00,8.7,5.6,30.33,North,9,27.0,36.0,87,0.00,,,0.00,Wunderground v.1.15,2013-01-22 12:06:00,
2013-01-22 07:07:00,8.7,5.9,30.33,North,355,33.0,36.0,88,0.00,,,0.00,Wunderground v.1.15,2013-01-22 12:07:00,
2013-01-22 07:08:00,8.5,5.7,30.33,NNW,339,27.0,36.0,88,0.00,,,0.00,Wunderground v.1.15,2013-01-22 12:08:00,
2013-01-22 07:09:00,8.5,5.7,30.33,NNW,342,30.0,33.0,88,0.00,,,0.00,Wunderground v.1.15,2013-01-22 12:09:00,
2013-01-22 07:12:00,8.5,5.7,30.33,NNW,338,28.0,33.0,88,0.00,,,0.00,Wunderground v.1.15,2013-01-22 12:12:00,
2013-01-22 07:13:00,8.4,5.1,30.33,NNW,344,27.0,33.0,86,0.00,,,0.00,Wunderground v.1.15,2013-01-22 12:13:00,
2013-01-22 07:16:00,8.2,4.9,30.33,North,350,22.0,33.0,86,0.00,,,0.00,Wunderground v.1.15,2013-01-22 12:16:00,
2013-01-22 07:17:00,8.2,4.9,30.34,North,355,23.0,33.0,86,0.00,,,0.00,Wunderground v.1.15,2013-01-22 12:17:00,
2013-01-22 07:18:00,8.1,4.8,30.34,North,355,25.0,27.0,86,0.00,,,0.00,Wunderground v.1.15,2013-01-22 12:18:00,
2013-01-22 07:21:00,8.1,5.3,30.33,NNW,345,26.0,32.0,88,0.00,,,0.00,Wunderground v.1.15,2013-01-22 12:21:00,
2013-01-22 07:22:00,8.1,5.3,30.33,NNW,348,30.0,33.0,88,0.00,,,0.00,Wunderground v.1.15,2013-01-22 12:22:00,
2013-01-22 07:23:00,8.2,5.4,30.33,NNW,342,27.0,33.0,88,0.00,,,0.00,Wunderground v.1.15,2013-01-22 12:23:00,
2013-01-22 07:27:00,8.6,6.0,30.33,NNW,338,28.0,35.0,89,0.00,,,0.00,Wunderground v.1.15,2013-01-22 12:27:00,
2013-01-22 07:28:00,8.5,5.4,30.34,NW,326,24.0,35.0,87,0.00,,,0.00,Wunderground v.1.15,2013-01-22 12:28:00,
2013-01-22 07:32:00,8.7,5.9,30.34,North,349,31.0,37.0,88,0.00,,,0.00,Wunderground v.1.15,2013-01-22 12:32:00,
2013-01-22 07:33:00,8.7,5.9,30.34,NNW,333,24.0,37.0,88,0.00,,,0.00,Wunderground v.1.15,2013-01-22 12:33:00,
2013-01-22 07:37:00,8.4,5.6,30.34,NNW,341,27.0,37.0,88,0.00,,,0.00,Wunderground v.1.15,2013-01-22 12:37:00,
2013-01-22 07:38:00,8.3,5.7,30.34,North,350,26.0,37.0,89,0.00,,,0.00,Wunderground v.1.15,2013-01-22 12:38:00,
2013-01-22 07:39:00,8.3,5.7,30.34,North,350,23.0,26.0,89,0.00,,,0.00,Wunderground v.1.15,2013-01-22 12:39:00,
2013-01-22 07:42:00,8.5,5.7,30.34,North,355,25.0,29.0,88,0.00,,,0.00,Wunderground v.1.15,2013-01-22 12:42:00,
2013-01-22 07:43:00,8.4,5.3,30.34,North,349,28.0,29.0,87,0.00,,,0.00,Wunderground v.1.15,2013-01-22 12:43:00,
2013-01-22 07:44:00,8.3,5.2,30.34,NNW,335,27.0,33.0,87,0.00,,,0.00,Wunderground v.1.15,2013-01-22 12:44:00,
2013-01-22 07:48:00,8.2,4.9,30.34,NNW,340,28.0,33.0,86,0.00,,,0.00,Wunderground v.1.15,2013-01-22 12:48:00,
2013-01-22 07:49:00,8.2,5.1,30.34,NNW,338,30.0,31.0,87,0.00,,,0.00,Wunderground v.1.15,2013-01-22 12:49:00,
2013-01-22 07:53:00,7.9,4.6,30.35,NNW,331,22.0,31.0,86,0.00,,,0.00,Wunderground v.1.15,2013-01-22 12:53:00,
2013-01-22 07:54:00,7.8,4.5,30.34,NNW,340,27.0,31.0,86,0.00,,,0.00,Wunderground v.1.15,2013-01-22 12:54:00,
2013-01-22 07:58:00,8.2,5.1,30.34,NNW,344,24.0,33.0,87,0.00,,,0.00,Wunderground v.1.15,2013-01-22 12:58:00,
2013-01-22 07:59:00,8.3,5.2,30.34,NNW,334,28.0,33.0,87,0.00,,,0.00,Wunderground v.1.15,2013-01-22 12:59:00,
2013-01-22 08:03:00,8.2,4.9,30.34,NW,319,38.0,38.0,86,0.00,,,0.00,Wunderground v.1.15,2013-01-22 13:03:00,
2013-01-22 08:04:00,8.2,5.1,30.34,NNW,344,29.0,38.0,87,0.00,,,0.00,Wunderground v.1.15,2013-01-22 13:04:00,
2013-01-22 08:05:00,8.3,5.2,30.34,NNW,331,25.0,38.0,87,0.00,,,0.00,Wunderground v.1.15,2013-01-22 13:05:00,
2013-01-22 08:08:00,8.5,5.9,30.35,NNW,345,38.0,38.0,89,0.00,,,0.00,Wunderground v.1.15,2013-01-22 13:08:00,
2013-01-22 08:09:00,8.5,5.9,30.34,NNW,344,22.0,33.0,89,0.00,,,0.00,Wunderground v.1.15,2013-01-22 13:09:00,
2013-01-22 08:10:00,8.5,5.9,30.35,North,350,29.0,33.0,89,0.00,,,0.00,Wunderground v.1.15,2013-01-22 13:10:00,
2013-01-22 08:14:00,8.1,4.8,30.35,North,360,27.0,33.0,86,0.00,,,0.00,Wunderground v.1.15,2013-01-22 13:14:00,
2013-01-22 08:15:00,8.2,5.4,30.35,NNW,331,27.0,33.0,88,0.00,,,0.00,Wunderground v.1.15,2013-01-22 13:15:00,
2013-01-22 08:17:00,8.2,5.1,30.35,NNW,346,26.0,33.0,87,0.00,,,0.00,Wunderground v.1.15,2013-01-22 13:17:00,
2013-01-22 08:19:00,8.3,5.2,30.35,NW,317,28.0,31.0,87,0.00,,,0.00,Wunderground v.1.15,2013-01-22 13:19:00,
2013-01-22 08:20:00,8.4,5.3,30.35,NNW,333,30.0,33.0,87,0.00,,,0.00,Wunderground v.1.15,2013-01-22 13:20:00,
2013-01-22 08:22:00,8.2,5.4,30.35,NNW,340,24.0,33.0,88,0.00,,,0.00,Wunderground v.1.15,2013-01-22 13:22:00,
2013-01-22 08:24:00,8.1,5.3,30.35,NNW,342,31.0,33.0,88,0.00,,,0.00,Wunderground v.1.15,2013-01-22 13:24:00,
2013-01-22 08:25:00,8.2,5.4,30.35,NNW,333,26.0,33.0,88,0.00,,,0.00,Wunderground v.1.15,2013-01-22 13:25:00,
2013-01-22 08:27:00,8.2,5.1,30.35,North,9,27.0,33.0,87,0.00,,,0.00,Wunderground v.1.15,2013-01-22 13:27:00,
2013-01-22 08:29:00,8.3,5.5,30.35,NNW,336,27.0,27.0,88,0.00,,,0.00,Wunderground v.1.15,2013-01-22 13:29:00,
2013-01-22 08:30:00,8.3,5.7,30.35,NNW,333,28.0,28.0,89,0.00,,,0.00,Wunderground v.1.15,2013-01-22 13:30:00,
2013-01-22 08:32:00,8.7,6.1,30.34,NW,325,31.0,33.0,89,0.00,,,0.00,Wunderground v.1.15,2013-01-22 13:32:00,
2013-01-22 08:34:00,8.7,5.9,30.35,North,349,24.0,33.0,88,0.00,,,0.00,Wunderground v.1.15,2013-01-22 13:34:00,
2013-01-22 08:35:00,8.5,5.4,30.35,NNW,335,25.0,33.0,87,0.00,,,0.00,Wunderground v.1.15,2013-01-22 13:35:00,
2013-01-22 08:36:00,8.5,5.4,30.35,NW,314,29.0,33.0,87,0.00,,,0.00,Wunderground v.1.15,2013-01-22 13:36:00,
2013-01-22 08:37:00,8.4,5.3,30.35,North,360,24.0,33.0,87,0.00,,,0.00,Wunderground v.1.15,2013-01-22 13:37:00,
2013-01-22 08:40:00,8.6,5.5,30.35,NNW,329,22.0,30.0,87,0.00,,,0.00,Wunderground v.1.15,2013-01-22 13:40:00,
2013-01-22 08:41:00,8.5,5.7,30.35,NNW,334,25.0,30.0,88,0.00,,,0.00,Wunderground v.1.15,2013-01-22 13:41:00,
2013-01-22 08:42:00,8.5,5.7,30.35,NNW,338,32.0,34.0,88,0.00,,,0.00,Wunderground v.1.15,2013-01-22 13:42:00,
2013-01-22 08:45:00,8.7,5.9,30.35,NNW,348,27.0,34.0,88,0.00,,,0.00,Wunderground v.1.15,2013-01-22 13:45:00,
2013-01-22 08:46:00,8.6,5.8,30.35,NNW,335,28.0,34.0,88,0.00,,,0.00,Wunderground v.1.15,2013-01-22 13:46:00,
2013-01-22 08:47:00,8.4,5.3,30.36,NNW,331,23.0,34.0,87,0.00,,,0.00,Wunderground v.1.15,2013-01-22 13:47:00,
2013-01-22 08:50:00,8.4,5.8,30.36,NNW,346,25.0,30.0,89,0.00,,,0.00,Wunderground v.1.15,2013-01-22 13:50:00,
2013-01-22 08:51:00,8.2,5.4,30.36,NNW,332,31.0,31.0,88,0.00,,,0.00,Wunderground v.1.15,2013-01-22 13:51:00,
2013-01-22 08:52:00,8.3,5.5,30.36,NNW,343,27.0,31.0,88,0.00,,,0.00,Wunderground v.1.15,2013-01-22 13:52:00,
2013-01-22 08:53:00,8.4,5.6,30.36,North,355,27.0,31.0,88,0.00,,,0.00,Wunderground v.1.15,2013-01-22 13:53:00,
2013-01-22 08:56:00,8.1,4.8,30.36,NNW,344,20.0,31.0,86,0.00,,,0.00,Wunderground v.1.15,2013-01-22 13:56:00,
2013-01-22 08:57:00,8.0,4.7,30.36,NNW,342,25.0,31.0,86,0.00,,,0.00,Wunderground v.1.15,2013-01-22 13:57:00,
2013-01-22 08:58:00,8.0,4.7,30.36,NNW,342,25.0,31.0,86,0.00,,,0.00,Wunderground v.1.15,2013-01-22 13:58:00,
2013-01-22 09:01:00,8.1,5.0,30.36,NW,324,33.0,33.0,87,0.00,,,0.00,Wunderground v.1.15,2013-01-22 14:01:00,
2013-01-22 09:02:00,8.5,5.9,30.36,NW,325,31.0,33.0,89,0.00,,,0.00,Wunderground v.1.15,2013-01-22 14:02:00,
2013-01-22 09:03:00,8.7,6.4,30.36,NNW,338,23.0,33.0,90,0.00,,,0.00,Wunderground v.1.15,2013-01-22 14:03:00,
2013-01-22 09:06:00,8.5,5.9,30.36,NNW,331,27.0,33.0,89,0.00,,,0.00,Wunderground v.1.15,2013-01-22 14:06:00,
2013-01-22 09:07:00,8.9,6.6,30.36,NNW,348,30.0,33.0,90,0.00,,,0.00,Wunderground v.1.15,2013-01-22 14:07:00,
2013-01-22 09:08:00,9.0,6.7,30.36,NNW,332,29.0,33.0,90,0.00,,,0.00,Wunderground v.1.15,2013-01-22 14:08:00,
2013-01-22 09:11:00,8.7,6.1,30.37,NNW,333,24.0,30.0,89,0.00,,,0.00,Wunderground v.1.15,2013-01-22 14:11:00,
2013-01-22 09:13:00,9.0,6.7,30.37,NW,311,28.0,31.0,90,0.00,,,0.00,Wunderground v.1.15,2013-01-22 14:13:00,
2013-01-22 09:14:00,9.1,6.8,30.37,NNW,344,26.0,33.0,90,0.00,,,0.00,Wunderground v.1.15,2013-01-22 14:14:00,
2013-01-22 09:16:00,8.6,5.8,30.37,North,355,19.0,33.0,88,0.00,,,0.00,Wunderground v.1.15,2013-01-22 14:16:00,
2013-01-22 09:18:00,8.6,6.0,30.37,NNW,347,24.0,25.0,89,0.00,,,0.00,Wunderground v.1.15,2013-01-22 14:18:00,
2013-01-22 09:20:00,8.8,6.2,30.37,North,360,26.0,31.0,89,0.00,,,0.00,Wunderground v.1.15,2013-01-22 14:20:00,
2013-01-22 09:21:00,8.7,6.1,30.37,NNW,339,28.0,31.0,89,0.00,,,0.00,Wunderground v.1.15,2013-01-22 14:21:00,
2013-01-22 09:24:00,8.8,6.2,30.37,NNW,340,27.0,33.0,89,0.00,,,0.00,Wunderground v.1.15,2013-01-22 14:24:00,
2013-01-22 09:25:00,8.6,5.8,30.37,NNW,342,26.0,37.0,88,0.00,,,0.00,Wunderground v.1.15,2013-01-22 14:25:00,
2013-01-22 09:26:00,8.7,6.1,30.37,NNW,329,25.0,37.0,89,0.00,,,0.00,Wunderground v.1.15,2013-01-22 14:26:00,
2013-01-22 09:27:00,8.7,6.1,30.37,NNW,332,22.0,37.0,89,0.00,,,0.00,Wunderground v.1.15,2013-01-22 14:27:00,
2013-01-22 09:29:00,9.1,6.5,30.37,North,350,23.0,29.0,89,0.00,,,0.00,Wunderground v.1.15,2013-01-22 14:29:00,
2013-01-22 09:32:00,8.7,5.6,30.37,NNW,336,20.0,29.0,87,0.00,,,0.00,Wunderground v.1.15,2013-01-22 14:32:00,
2013-01-22 09:34:00,8.6,5.8,30.37,North,360,25.0,30.0,88,0.00,,,0.00,Wunderground v.1.15,2013-01-22 14:34:00,
2013-01-22 09:37:00,8.7,5.9,30.38,North,11,23.0,30.0,88,0.00,,,0.00,Wunderground v.1.15,2013-01-22 14:37:00,
2013-01-22 09:39:00,8.6,6.0,30.37,NNW,343,23.0,27.0,89,0.00,,,0.00,Wunderground v.1.15,2013-01-22 14:39:00,
2013-01-22 09:42:00,8.5,5.9,30.38,NNW,333,30.0,32.0,89,0.00,,,0.00,Wunderground v.1.15,2013-01-22 14:42:00,
2013-01-22 09:43:00,8.5,5.9,30.38,NNW,340,26.0,32.0,89,0.00,,,0.00,Wunderground v.1.15,2013-01-22 14:43:00,
2013-01-22 09:44:00,8.5,5.9,30.38,NNW,333,29.0,36.0,89,0.00,,,0.00,Wunderground v.1.15,2013-01-22 14:44:00,
2013-01-22 09:47:00,8.6,6.0,30.38,NNW,336,24.0,36.0,89,0.00,,,0.00,Wunderground v.1.15,2013-01-22 14:47:00,
2013-01-22 09:48:00,8.7,6.4,30.38,NNW,348,25.0,36.0,90,0.00,,,0.00,Wunderground v.1.15,2013-01-22 14:48:00,
2013-01-22 09:49:00,8.6,6.3,30.38,NNW,328,24.0,29.0,90,0.00,,,0.00,Wunderground v.1.15,2013-01-22 14:49:00,
2013-01-22 09:50:00,8.8,6.5,30.38,North,350,30.0,33.0,90,0.00,,,0.00,Wunderground v.1.15,2013-01-22 14:50:00,
2013-01-22 09:52:00,8.7,6.1,30.38,NNW,333,22.0,33.0,89,0.00,,,0.00,Wunderground v.1.15,2013-01-22 14:52:00,
2013-01-22 09:53:00,8.7,5.9,30.38,North,9,28.0,33.0,88,0.00,,,0.00,Wunderground v.1.15,2013-01-22 14:53:00,
2013-01-22 09:54:00,8.6,5.8,30.38,NNW,345,27.0,33.0,88,0.00,,,0.00,Wunderground v.1.15,2013-01-22 14:54:00,
2013-01-22 09:55:00,8.5,5.4,30.38,NNW,342,24.0,33.0,87,0.00,,,0.00,Wunderground v.1.15,2013-01-22 14:55:00,
2013-01-22 09:57:00,8.2,5.1,30.38,NNW,338,26.0,33.0,87,0.00,,,0.00,Wunderground v.1.15,2013-01-22 14:57:00,
2013-01-22 09:58:00,8.3,5.5,30.38,NNW,336,24.0,26.0,88,0.00,,,0.00,Wunderground v.1.15,2013-01-22 14:58:00,
2013-01-22 10:00:00,8.2,5.4,30.38,NNW,330,20.0,26.0,88,0.00,,,0.00,Wunderground v.1.15,2013-01-22 15:00:00,
2013-01-22 10:02:00,8.3,5.7,30.38,NNW,332,28.0,28.0,89,0.00,,,0.00,Wunderground v.1.15,2013-01-22 15:02:00,
2013-01-22 10:04:00,8.6,6.3,30.38,North,355,25.0,32.0,90,0.00,,,0.00,Wunderground v.1.15,2013-01-22 15:04:00,
2013-01-22 10:05:00,8.7,6.4,30.38,NNW,344,28.0,32.0,90,0.00,,,0.00,Wunderground v.1.15,2013-01-22 15:05:00,
2013-01-22 10:06:00,8.7,6.4,30.38,NNW,345,27.0,32.0,90,0.00,,,0.00,Wunderground v.1.15,2013-01-22 15:06:00,
2013-01-22 10:08:00,8.7,6.4,30.38,NNW,330,29.0,32.0,90,0.00,,,0.00,Wunderground v.1.15,2013-01-22 15:08:00,
2013-01-22 10:09:00,8.7,6.1,30.38,North,360,25.0,28.0,89,0.00,,,0.00,Wunderground v.1.15,2013-01-22 15:09:00,
2013-01-22 10:10:00,8.6,6.0,30.38,North,9,25.0,28.0,89,0.00,,,0.00,Wunderground v.1.15,2013-01-22 15:10:00,
2013-01-22 10:12:00,8.6,5.8,30.38,North,350,22.0,31.0,88,0.00,,,0.00,Wunderground v.1.15,2013-01-22 15:12:00,
2013-01-22 10:13:00,8.4,5.3,30.38,North,355,21.0,31.0,87,0.00,,,0.00,Wunderground v.1.15,2013-01-22 15:13:00,
2013-01-22 10:14:00,8.4,5.3,30.38,NNW,327,23.0,31.0,87,0.00,,,0.00,Wunderground v.1.15,2013-01-22 15:14:00,
2013-01-22 10:15:00,8.3,5.5,30.38,North,360,20.0,31.0,88,0.00,,,0.00,Wunderground v.1.15,2013-01-22 15:15:00,
2013-01-22 10:17:00,8.5,5.9,30.39,North,355,24.0,33.0,89,0.00,,,0.00,Wunderground v.1.15,2013-01-22 15:17:00,
2013-01-22 10:19:00,8.3,5.5,30.39,NW,323,23.0,25.0,88,0.00,,,0.00,Wunderground v.1.15,2013-01-22 15:19:00,
2013-01-22 10:20:00,8.4,5.8,30.39,North,360,24.0,27.0,89,0.00,,,0.00,Wunderground v.1.15,2013-01-22 15:20:00,
2013-01-22 10:22:00,8.5,5.9,30.39,NNW,331,24.0,29.0,89,0.00,,,0.00,Wunderground v.1.15,2013-01-22 15:22:00,
2013-01-22 10:24:00,8.3,5.5,30.39,NW,318,22.0,29.0,88,0.00,,,0.00,Wunderground v.1.15,2013-01-22 15:24:00,
2013-01-22 10:25:00,8.2,5.4,30.39,NW,314,18.0,29.0,88,0.00,,,0.00,Wunderground v.1.15,2013-01-22 15:25:00,
2013-01-22 10:27:00,8.1,5.3,30.39,WNW,302,26.0,29.0,88,0.00,,,0.00,Wunderground v.1.15,2013-01-22 15:27:00,
2013-01-22 10:29:00,8.7,6.1,30.38,North,360,26.0,33.0,89,0.00,,,0.00,Wunderground v.1.15,2013-01-22 15:29:00,
2013-01-22 10:30:00,8.6,6.0,30.39,NNW,334,22.0,33.0,89,0.00,,,0.00,Wunderground v.1.15,2013-01-22 15:30:00,
2013-01-22 10:32:00,8.5,5.7,30.39,NNW,331,31.0,33.0,88,0.00,,,0.00,Wunderground v.1.15,2013-01-22 15:32:00,
2013-01-22 10:34:00,8.3,5.7,30.39,NW,323,22.0,33.0,89,0.00,,,0.00,Wunderground v.1.15,2013-01-22 15:34:00,
2013-01-22 10:35:00,8.5,5.9,30.39,NW,326,16.0,33.0,89,0.00,,,0.00,Wunderground v.1.15,2013-01-22 15:35:00,
2013-01-22 10:36:00,8.4,5.8,30.39,NW,324,20.0,33.0,89,0.00,,,0.00,Wunderground v.1.15,2013-01-22 15:36:00,
2013-01-22 10:37:00,8.3,5.7,30.39,NNW,346,21.0,33.0,89,0.00,,,0.00,Wunderground v.1.15,2013-01-22 15:37:00,
2013-01-22 10:40:00,8.3,5.5,30.39,NW,325,24.0,26.0,88,0.00,,,0.00,Wunderground v.1.15,2013-01-22 15:40:00,
2013-01-22 10:41:00,8.5,5.9,30.39,North,9,24.0,27.0,89,0.00,,,0.00,Wunderground v.1.15,2013-01-22 15:41:00,
2013-01-22 10:42:00,8.4,5.6,30.39,NNW,348,20.0,27.0,88,0.00,,,0.00,Wunderground v.1.15,2013-01-22 15:42:00,
2013-01-22 10:45:00,8.4,5.6,30.39,NNW,332,22.0,27.0,88,0.00,,,0.00,Wunderground v.1.15,2013-01-22 15:45:00,
2013-01-22 10:46:00,8.5,5.9,30.39,NNW,331,28.0,28.0,89,0.00,,,0.00,Wunderground v.1.15,2013-01-22 15:46:00,
2013-01-22 10:47:00,8.5,5.7,30.39,NNW,337,20.0,29.0,88,0.00,,,0.00,Wunderground v.1.15,2013-01-22 15:47:00,
2013-01-22 10:50:00,8.4,5.3,30.40,NNW,327,24.0,24.0,87,0.00,,,0.00,Wunderground v.1.15,2013-01-22 15:50:00,
2013-01-22 10:51:00,8.4,5.3,30.39,North,11,25.0,27.0,87,0.00,,,0.00,Wunderground v.1.15,2013-01-22 15:51:00,
2013-01-22 10:52:00,8.4,5.3,30.39,North,360,22.0,27.0,87,0.00,,,0.00,Wunderground v.1.15,2013-01-22 15:52:00,
2013-01-22 10:55:00,8.5,5.7,30.40,NNW,331,22.0,27.0,88,0.00,,,0.00,Wunderground v.1.15,2013-01-22 15:55:00,
2013-01-22 10:56:00,8.4,5.3,30.40,NW,323,22.0,27.0,87,0.00,,,0.00,Wunderground v.1.15,2013-01-22 15:56:00,
2013-01-22 10:57:00,8.3,5.5,30.40,North,349,26.0,27.0,88,0.00,,,0.00,Wunderground v.1.15,2013-01-22 15:57:00,
2013-01-22 10:58:00,8.4,5.6,30.40,NNW,337,24.0,27.0,88,0.00,,,0.00,Wunderground v.1.15,2013-01-22 15:58:00,
2013-01-22 11:00:00,8.4,5.3,30.39,NW,318,27.0,28.0,87,0.00,,,0.00,Wunderground v.1.15,2013-01-22 16:00:00,
2013-01-22 11:02:00,8.4,5.3,30.39,NNW,333,25.0,29.0,87,0.00,,,0.00,Wunderground v.1.15,2013-01-22 16:02:00,
2013-01-22 11:03:00,8.4,5.3,30.39,NNW,343,25.0,29.0,87,0.00,,,0.00,Wunderground v.1.15,2013-01-22 16:03:00,
2013-01-22 11:07:00,8.2,4.9,30.40,NNW,337,22.0,29.0,86,0.00,,,0.00,Wunderground v.1.15,2013-01-22 16:07:00,
2013-01-22 11:08:00,8.4,5.3,30.40,NNW,345,21.0,29.0,87,0.00,,,0.00,Wunderground v.1.15,2013-01-22 16:08:00,
2013-01-22 11:12:00,8.8,5.7,30.40,NNW,331,21.0,25.0,87,0.00,,,0.00,Wunderground v.1.15,2013-01-22 16:12:00,
2013-01-22 11:13:00,8.8,5.5,30.40,North,355,21.0,25.0,86,0.00,,,0.00,Wunderground v.1.15,2013-01-22 16:13:00,
2013-01-22 11:17:00,8.5,5.2,30.40,North,360,17.0,27.0,86,0.00,,,0.00,Wunderground v.1.15,2013-01-22 16:17:00,
2013-01-22 11:18:00,8.5,4.9,30.40,NNW,336,16.0,27.0,85,0.00,,,0.00,Wunderground v.1.15,2013-01-22 16:18:00,
2013-01-22 11:19:00,8.4,5.1,30.40,NNW,338,19.0,23.0,86,0.00,,,0.00,Wunderground v.1.15,2013-01-22 16:19:00,
2013-01-22 11:22:00,8.3,5.2,30.40,North,355,22.0,25.0,87,0.00,,,0.00,Wunderground v.1.15,2013-01-22 16:22:00,
2013-01-22 11:23:00,8.2,5.1,30.40,NNW,327,18.0,25.0,87,0.00,,,0.00,Wunderground v.1.15,2013-01-22 16:23:00,
2013-01-22 11:24:00,8.3,5.2,30.40,NNW,331,18.0,25.0,87,0.00,,,0.00,Wunderground v.1.15,2013-01-22 16:24:00,
2013-01-22 11:27:00,8.6,5.8,30.40,North,360,20.0,28.0,88,0.00,,,0.00,Wunderground v.1.15,2013-01-22 16:27:00,
2013-01-22 11:28:00,8.6,6.0,30.40,NNW,337,19.0,28.0,89,0.00,,,0.00,Wunderground v.1.15,2013-01-22 16:28:00,
2013-01-22 11:29:00,8.5,5.9,30.40,North,350,23.0,24.0,89,0.00,,,0.00,Wunderground v.1.15,2013-01-22 16:29:00,
2013-01-22 11:32:00,8.4,5.3,30.40,NW,323,19.0,26.0,87,0.00,,,0.00,Wunderground v.1.15,2013-01-22 16:32:00,
2013-01-22 11:34:00,8.5,5.7,30.40,North,355,17.0,26.0,88,0.00,,,0.00,Wunderground v.1.15,2013-01-22 16:34:00,
2013-01-22 11:35:00,8.5,5.7,30.40,NNW,333,24.0,26.0,88,0.00,,,0.00,Wunderground v.1.15,2013-01-22 16:35:00,
2013-01-22 11:38:00,8.3,5.0,30.40,North,355,21.0,21.0,86,0.00,,,0.00,Wunderground v.1.15,2013-01-22 16:38:00,
2013-01-22 11:39:00,8.3,5.0,30.40,North,9,21.0,27.0,86,0.00,,,0.00,Wunderground v.1.15,2013-01-22 16:39:00,
2013-01-22 11:40:00,8.2,4.9,30.40,NNW,348,23.0,27.0,86,0.00,,,0.00,Wunderground v.1.15,2013-01-22 16:40:00,
2013-01-22 11:43:00,8.2,5.1,30.40,NNW,346,16.0,27.0,87,0.00,,,0.00,Wunderground v.1.15,2013-01-22 16:43:00,
2013-01-22 11:44:00,8.2,5.1,30.40,NNW,336,19.0,28.0,87,0.00,,,0.00,Wunderground v.1.15,2013-01-22 16:44:00,
2013-01-22 11:45:00,8.2,5.1,30.40,NNW,331,15.0,28.0,87,0.00,,,0.00,Wunderground v.1.15,2013-01-22 16:45:00,
2013-01-22 11:48:00,8.8,6.2,30.39,NNW,327,24.0,25.0,89,0.00,,,0.00,Wunderground v.1.15,2013-01-22 16:48:00,
2013-01-22 11:49:00,8.8,6.2,30.39,NNW,348,21.0,25.0,89,0.00,,,0.00,Wunderground v.1.15,2013-01-22 16:49:00,
2013-01-22 11:50:00,8.6,6.0,30.39,NW,325,24.0,28.0,89,0.00,,,0.00,Wunderground v.1.15,2013-01-22 16:50:00,
2013-01-22 11:54:00,8.6,5.8,30.39,NNW,348,22.0,29.0,88,0.00,,,0.00,Wunderground v.1.15,2013-01-22 16:54:00,
2013-01-22 11:55:00,8.4,5.6,30.39,NNW,327,22.0,29.0,88,0.00,,,0.00,Wunderground v.1.15,2013-01-22 16:55:00,
2013-01-22 11:59:00,8.4,5.6,30.39,NNW,336,19.0,25.0,88,0.00,,,0.00,Wunderground v.1.15,2013-01-22 16:59:00,
2013-01-22 12:00:00,8.3,5.5,30.39,NW,321,20.0,25.0,88,0.00,,,0.00,Wunderground v.1.15,2013-01-22 17:00:00,
2013-01-22 12:01:00,8.3,5.2,30.39,NW,319,25.0,25.0,87,0.00,,,0.00,Wunderground v.1.15,2013-01-22 17:01:00,
2013-01-22 12:04:00,8.1,4.8,30.39,NW,315,15.0,27.0,86,0.00,,,0.00,Wunderground v.1.15,2013-01-22 17:04:00,
2013-01-22 12:05:00,8.1,5.0,30.39,NW,315,19.0,27.0,87,0.00,,,0.00,Wunderground v.1.15,2013-01-22 17:05:00,
2013-01-22 12:06:00,8.1,4.8,30.39,NNW,330,15.0,27.0,86,0.00,,,0.00,Wunderground v.1.15,2013-01-22 17:06:00,
2013-01-22 12:10:00,8.2,5.1,30.39,NNW,346,19.0,22.0,87,0.00,,,0.00,Wunderground v.1.15,2013-01-22 17:10:00,
2013-01-22 12:11:00,8.2,5.1,30.39,NNW,331,19.0,22.0,87,0.00,,,0.00,Wunderground v.1.15,2013-01-22 17:11:00,
2013-01-22 12:12:00,8.4,5.6,30.39,NNW,327,17.0,22.0,88,0.00,,,0.00,Wunderground v.1.15,2013-01-22 17:12:00,
2013-01-22 12:15:00,8.5,5.4,30.39,NNW,336,18.0,22.0,87,0.00,,,0.00,Wunderground v.1.15,2013-01-22 17:15:00,
2013-01-22 12:16:00,8.5,5.4,30.39,NNW,340,20.0,23.0,87,0.00,,,0.00,Wunderground v.1.15,2013-01-22 17:16:00,
2013-01-22 12:17:00,8.5,5.2,30.38,NNW,335,15.0,24.0,86,0.00,,,0.00,Wunderground v.1.15,2013-01-22 17:17:00,
2013-01-22 12:21:00,8.3,4.7,30.39,NW,326,19.0,24.0,85,0.00,,,0.00,Wunderground v.1.15,2013-01-22 17:21:00,
2013-01-22 12:22:00,8.2,4.9,30.39,NNW,340,19.0,24.0,86,0.00,,,0.00,Wunderground v.1.15,2013-01-22 17:22:00,
2013-01-22 12:26:00,8.3,5.0,30.39,NNW,329,19.0,24.0,86,0.00,,,0.00,Wunderground v.1.15,2013-01-22 17:26:00,
2013-01-22 12:27:00,8.2,4.9,30.38,NW,323,18.0,24.0,86,0.00,,,0.00,Wunderground v.1.15,2013-01-22 17:27:00,
2013-01-22 12:31:00,8.8,6.0,30.38,NNW,337,19.0,24.0,88,0.00,,,0.00,Wunderground v.1.15,2013-01-22 17:31:00,
2013-01-22 12:32:00,8.7,5.9,30.38,NNW,348,21.0,24.0,88,0.00,,,0.00,Wunderground v.1.15,2013-01-22 17:32:00,
2013-01-22 12:33:00,8.9,6.1,30.38,NNW,336,26.0,26.0,88,0.00,,,0.00,Wunderground v.1.15,2013-01-22 17:33:00,
2013-01-22 12:36:00,8.8,5.7,30.38,NNW,338,18.0,26.0,87,0.00,,,0.00,Wunderground v.1.15,2013-01-22 17:36:00,
2013-01-22 12:37:00,9.0,5.9,30.38,NW,325,14.0,26.0,87,0.00,,,0.00,Wunderground v.1.15,2013-01-22 17:37:00,
2013-01-22 12:38:00,9.1,6.0,30.38,NNW,331,19.0,26.0,87,0.00,,,0.00,Wunderground v.1.15,2013-01-22 17:38:00,
2013-01-22 12:42:00,9.0,5.7,30.38,NNW,333,20.0,23.0,86,0.00,,,0.00,Wunderground v.1.15,2013-01-22 17:42:00,
2013-01-22 12:43:00,8.9,5.6,30.38,NNW,338,18.0,24.0,86,0.00,,,0.00,Wunderground v.1.15,2013-01-22 17:43:00,
2013-01-22 12:44:00,8.8,5.5,30.38,NNW,329,17.0,24.0,86,0.00,,,0.00,Wunderground v.1.15,2013-01-22 17:44:00,
2013-01-22 12:47:00,8.6,4.8,30.37,NNW,337,22.0,24.0,84,0.00,,,0.00,Wunderground v.1.15,2013-01-22 17:47:00,
2013-01-22 12:49:00,8.7,5.1,30.38,NW,324,17.0,19.0,85,0.00,,,0.00,Wunderground v.1.15,2013-01-22 17:49:00,
2013-01-22 12:52:00,8.5,4.7,30.38,North,360,15.0,20.0,84,0.00,,,0.00,Wunderground v.1.15,2013-01-22 17:52:00,
2013-01-22 12:54:00,8.6,5.0,30.38,NNW,344,17.0,23.0,85,0.00,,,0.00,Wunderground v.1.15,2013-01-22 17:54:00,
2013-01-22 12:55:00,8.7,5.4,30.37,NNW,337,18.0,23.0,86,0.00,,,0.00,Wunderground v.1.15,2013-01-22 17:55:00,
2013-01-22 12:58:00,8.7,5.6,30.37,NNW,344,19.0,23.0,87,0.00,,,0.00,Wunderground v.1.15,2013-01-22 17:58:00,
2013-01-22 12:59:00,8.8,5.7,30.37,NW,324,21.0,23.0,87,0.00,,,0.00,Wunderground v.1.15,2013-01-22 17:59:00,
2013-01-22 13:00:00,8.8,5.7,30.37,NNW,345,21.0,24.0,87,0.00,,,0.00,Wunderground v.1.15,2013-01-22 18:00:00,
2013-01-22 13:03:00,8.9,6.1,30.37,NNW,334,23.0,27.0,88,0.00,,,0.00,Wunderground v.1.15,2013-01-22 18:03:00,
2013-01-22 13:04:00,9.0,6.2,30.37,NNW,340,26.0,27.0,88,0.00,,,0.00,Wunderground v.1.15,2013-01-22 18:04:00,
2013-01-22 13:05:00,9.1,6.3,30.37,NNW,337,24.0,27.0,88,0.00,,,0.00,Wunderground v.1.15,2013-01-22 18:05:00,
2013-01-22 13:08:00,9.4,6.8,30.37,NNW,330,18.0,27.0,89,0.00,,,0.00,Wunderground v.1.15,2013-01-22 18:08:00,
2013-01-22 13:09:00,9.4,6.6,30.37,NW,326,19.0,23.0,88,0.00,,,0.00,Wunderground v.1.15,2013-01-22 18:09:00,
2013-01-22 13:10:00,9.3,6.5,30.37,NNW,341,21.0,25.0,88,0.00,,,0.00,Wunderground v.1.15,2013-01-22 18:10:00,
2013-01-22 13:13:00,9.4,6.3,30.37,NNW,335,21.0,25.0,87,0.00,,,0.00,Wunderground v.1.15,2013-01-22 18:13:00,
2013-01-22 13:14:00,9.5,6.2,30.37,NNW,327,21.0,25.0,86,0.00,,,0.00,Wunderground v.1.15,2013-01-22 18:14:00,
2013-01-22 13:15:00,9.5,6.2,30.37,NNW,331,21.0,25.0,86,0.00,,,0.00,Wunderground v.1.15,2013-01-22 18:15:00,
2013-01-22 13:18:00,9.2,6.1,30.37,NW,315,14.0,21.0,87,0.00,,,0.00,Wunderground v.1.15,2013-01-22 18:18:00,
2013-01-22 13:19:00,9.0,5.9,30.37,NNW,329,15.0,21.0,87,0.00,,,0.00,Wunderground v.1.15,2013-01-22 18:19:00,
2013-01-22 13:20:00,9.0,5.9,30.37,NNW,334,17.0,21.0,87,0.00,,,0.00,Wunderground v.1.15,2013-01-22 18:20:00,
2013-01-22 13:23:00,9.3,6.0,30.37,NNW,333,20.0,26.0,86,0.00,,,0.00,Wunderground v.1.15,2013-01-22 18:23:00,
2013-01-22 13:25:00,9.2,5.6,30.37,NNW,335,16.0,26.0,85,0.00,,,0.00,Wunderground v.1.15,2013-01-22 18:25:00,
2013-01-22 13:28:00,9.3,6.0,30.38,NNW,341,18.0,19.0,86,0.00,,,0.00,Wunderground v.1.15,2013-01-22 18:28:00,
2013-01-22 13:30:00,9.4,6.3,30.37,North,349,17.0,22.0,87,0.00,,,0.00,Wunderground v.1.15,2013-01-22 18:30:00,
2013-01-22 13:31:00,9.4,6.3,30.37,NNW,331,17.0,22.0,87,0.00,,,0.00,Wunderground v.1.15,2013-01-22 18:31:00,
2013-01-22 13:34:00,9.3,6.2,30.37,NW,311,20.0,27.0,87,0.00,,,0.00,Wunderground v.1.15,2013-01-22 18:34:00,
2013-01-22 13:35:00,9.4,6.1,30.37,NNW,346,18.0,27.0,86,0.00,,,0.00,Wunderground v.1.15,2013-01-22 18:35:00,
2013-01-22 13:36:00,9.7,6.6,30.37,NNW,336,22.0,27.0,87,0.00,,,0.00,Wunderground v.1.15,2013-01-22 18:36:00,
2013-01-22 13:39:00,9.8,6.5,30.37,NW,325,23.0,23.0,86,0.00,,,0.00,Wunderground v.1.15,2013-01-22 18:39:00,
2013-01-22 13:40:00,9.7,6.4,30.37,NNW,327,24.0,24.0,86,0.00,,,0.00,Wunderground v.1.15,2013-01-22 18:40:00,
2013-01-22 13:41:00,9.6,6.3,30.37,NNW,330,19.0,24.0,86,0.00,,,0.00,Wunderground v.1.15,2013-01-22 18:41:00,
2013-01-22 13:42:00,9.5,6.2,30.37,NW,316,24.0,24.0,86,0.00,,,0.00,Wunderground v.1.15,2013-01-22 18:42:00,
2013-01-22 13:45:00,9.3,6.0,30.36,NNW,337,25.0,27.0,86,0.00,,,0.00,Wunderground v.1.15,2013-01-22 18:45:00,
2013-01-22 13:47:00,9.8,6.7,30.37,NW,325,27.0,29.0,87,0.00,,,0.00,Wunderground v.1.15,2013-01-22 18:47:00,
2013-01-22 13:50:00,9.6,6.8,30.37,NW,323,13.0,23.0,88,0.00,,,0.00,Wunderground v.1.15,2013-01-22 18:50:00,
2013-01-22 13:51:00,9.6,6.5,30.37,NNW,329,14.0,23.0,87,0.00,,,0.00,Wunderground v.1.15,2013-01-22 18:51:00,
2013-01-22 13:52:00,9.5,6.4,30.37,NNW,346,22.0,25.0,87,0.00,,,0.00,Wunderground v.1.15,2013-01-22 18:52:00,
2013-01-22 13:56:00,9.5,6.2,30.37,NW,316,16.0,26.0,86,0.00,,,0.00,Wunderground v.1.15,2013-01-22 18:56:00,
2013-01-22 13:58:00,9.4,6.1,30.37,WNW,299,12.0,26.0,86,0.00,,,0.00,Wunderground v.1.15,2013-01-22 18:58:00,
2013-01-22 14:01:00,9.3,6.2,30.37,NNW,327,18.0,27.0,87,0.00,,,0.00,Wunderground v.1.15,2013-01-22 19:01:00,
2013-01-22 14:02:00,9.4,6.6,30.37,NNW,327,17.0,27.0,88,0.00,,,0.00,Wunderground v.1.15,2013-01-22 19:02:00,
2013-01-22 14:03:00,9.5,6.7,30.37,NW,326,16.0,27.0,88,0.00,,,0.00,Wunderground v.1.15,2013-01-22 19:03:00,
2013-01-22 14:07:00,9.7,6.9,30.37,NNW,340,19.0,27.0,88,0.00,,,0.00,Wunderground v.1.15,2013-01-22 19:07:00,
2013-01-22 14:08:00,9.9,7.3,30.37,NW,306,16.0,27.0,89,0.00,,,0.00,Wunderground v.1.15,2013-01-22 19:08:00,
2013-01-22 14:12:00,9.4,6.6,30.37,NW,311,19.0,25.0,88,0.00,,,0.00,Wunderground v.1.15,2013-01-22 19:12:00,
2013-01-22 14:13:00,9.4,6.6,30.37,NW,321,19.0,25.0,88,0.00,,,0.00,Wunderground v.1.15,2013-01-22 19:13:00,
2013-01-22 14:14:00,9.3,6.2,30.37,NW,313,17.0,25.0,87,0.00,,,0.00,Wunderground v.1.15,2013-01-22 19:14:00,
2013-01-22 14:18:00,9.9,7.1,30.36,NW,314,26.0,27.0,88,0.00,,,0.00,Wunderground v.1.15,2013-01-22 19:18:00,
2013-01-22 14:19:00,9.9,7.3,30.37,NW,314,18.0,20.0,89,0.00,,,0.00,Wunderground v.1.15,2013-01-22 19:19:00,
2013-01-22 14:23:00,9.5,6.7,30.37,NW,315,23.0,23.0,88,0.00,,,0.00,Wunderground v.1.15,2013-01-22 19:23:00,
2013-01-22 14:24:00,9.4,6.6,30.37,NW,325,22.0,26.0,88,0.00,,,0.00,Wunderground v.1.15,2013-01-22 19:24:00,
2013-01-22 14:25:00,9.4,6.6,30.36,NNW,336,26.0,26.0,88,0.00,,,0.00,Wunderground v.1.15,2013-01-22 19:25:00,
2013-01-22 14:28:00,9.7,6.9,30.37,NNW,327,15.0,27.0,88,0.00,,,0.00,Wunderground v.1.15,2013-01-22 19:28:00,
2013-01-22 14:29:00,9.7,6.6,30.37,NNW,345,21.0,23.0,87,0.00,,,0.00,Wunderground v.1.15,2013-01-22 19:29:00,
2013-01-22 14:30:00,9.7,6.6,30.37,NW,323,22.0,23.0,87,0.00,,,0.00,Wunderground v.1.15,2013-01-22 19:30:00,
2013-01-22 14:33:00,9.9,7.1,30.37,NW,322,18.0,26.0,88,0.00,,,0.00,Wunderground v.1.15,2013-01-22 19:33:00,
2013-01-22 14:34:00,9.7,6.6,30.37,NNW,327,18.0,26.0,87,0.00,,,0.00,Wunderground v.1.15,2013-01-22 19:34:00,
2013-01-22 14:35:00,9.7,6.9,30.37,NW,311,19.0,26.0,88,0.00,,,0.00,Wunderground v.1.15,2013-01-22 19:35:00,
2013-01-22 14:38:00,9.6,6.8,30.37,NNW,334,16.0,26.0,88,0.00,,,0.00,Wunderground v.1.15,2013-01-22 19:38:00,
2013-01-22 14:39:00,9.5,6.7,30.37,NNW,327,21.0,21.0,88,0.00,,,0.00,Wunderground v.1.15,2013-01-22 19:39:00,
2013-01-22 14:40:00,9.5,6.7,30.37,NNW,338,17.0,21.0,88,0.00,,,0.00,Wunderground v.1.15,2013-01-22 19:40:00,
2013-01-22 14:43:00,9.6,6.8,30.37,NW,305,15.0,21.0,88,0.00,,,0.00,Wunderground v.1.15,2013-01-22 19:43:00,
2013-01-22 14:44:00,9.6,6.8,30.37,NNW,343,16.0,21.0,88,0.00,,,0.00,Wunderground v.1.15,2013-01-22 19:44:00,
2013-01-22 14:45:00,9.6,6.8,30.37,NW,321,25.0,25.0,88,0.00,,,0.00,Wunderground v.1.15,2013-01-22 19:45:00,
2013-01-22 14:46:00,9.8,7.0,30.37,NW,322,17.0,25.0,88,0.00,,,0.00,Wunderground v.1.15,2013-01-22 19:46:00,
2013-01-22 14:48:00,9.6,6.8,30.37,NW,323,22.0,22.0,88,0.00,,,0.00,Wunderground v.1.15,2013-01-22 19:48:00,
2013-01-22 14:49:00,9.6,6.8,30.37,WNW,294,13.0,22.0,88,0.00,,,0.00,Wunderground v.1.15,2013-01-22 19:49:00,
2013-01-22 14:50:00,9.5,6.7,30.37,NNW,329,18.0,23.0,88,0.00,,,0.00,Wunderground v.1.15,2013-01-22 19:50:00,
2013-01-22 14:52:00,9.5,6.4,30.37,NNW,342,17.0,26.0,87,0.00,,,0.00,Wunderground v.1.15,2013-01-22 19:52:00,
2013-01-22 14:53:00,9.8,6.7,30.37,NW,317,16.0,26.0,87,0.00,,,0.00,Wunderground v.1.15,2013-01-22 19:53:00,
2013-01-22 14:55:00,9.9,6.8,30.37,NW,317,14.0,26.0,87,0.00,,,0.00,Wunderground v.1.15,2013-01-22 19:55:00,
2013-01-22 14:57:00,9.9,6.3,30.37,NW,319,18.0,26.0,85,0.00,,,0.00,Wunderground v.1.15,2013-01-22 19:57:00,
2013-01-22 14:59:00,9.9,6.6,30.37,NNW,340,18.0,23.0,86,0.00,,,0.00,Wunderground v.1.15,2013-01-22 19:59:00,
2013-01-22 15:00:00,9.9,6.6,30.37,NNW,339,16.0,23.0,86,0.00,,,0.00,Wunderground v.1.15,2013-01-22 20:00:00,
2013-01-22 15:03:00,9.6,6.8,30.37,NNW,330,12.0,23.0,88,0.00,,,0.00,Wunderground v.1.15,2013-01-22 20:03:00,
2013-01-22 15:05:00,9.5,6.7,30.37,NW,323,14.0,23.0,88,0.00,,,0.00,Wunderground v.1.15,2013-01-22 20:05:00,
2013-01-22 15:06:00,9.4,6.6,30.37,NNW,332,12.0,23.0,88,0.00,,,0.00,Wunderground v.1.15,2013-01-22 20:06:00,
2013-01-22 15:08:00,9.4,6.6,30.36,NW,319,17.0,23.0,88,0.00,,,0.00,Wunderground v.1.15,2013-01-22 20:08:00,
2013-01-22 15:10:00,9.4,6.6,30.36,NNW,327,17.0,22.0,88,0.00,,,0.00,Wunderground v.1.15,2013-01-22 20:10:00,
2013-01-22 15:11:00,9.5,6.4,30.36,NNW,344,20.0,23.0,87,0.00,,,0.00,Wunderground v.1.15,2013-01-22 20:11:00,
2013-01-22 15:13:00,9.9,6.8,30.36,NW,322,20.0,25.0,87,0.00,,,0.00,Wunderground v.1.15,2013-01-22 20:13:00,
2013-01-22 15:15:00,9.9,6.8,30.37,NW,317,16.0,25.0,87,0.00,,,0.00,Wunderground v.1.15,2013-01-22 20:15:00,
2013-01-22 15:16:00,9.9,7.1,30.37,NW,326,17.0,25.0,88,0.00,,,0.00,Wunderground v.1.15,2013-01-22 20:16:00,
2013-01-22 15:19:00,9.8,7.0,30.37,NW,321,12.0,19.0,88,0.00,,,0.00,Wunderground v.1.15,2013-01-22 20:19:00,
2013-01-22 15:20:00,9.6,6.8,30.36,NNW,327,16.0,19.0,88,0.00,,,0.00,Wunderground v.1.15,2013-01-22 20:20:00,
2013-01-22 15:21:00,9.7,6.9,30.36,NW,307,19.0,23.0,88,0.00,,,0.00,Wunderground v.1.15,2013-01-22 20:21:00,
2013-01-22 15:24:00,9.7,6.6,30.36,NNW,329,16.0,23.0,87,0.00,,,0.00,Wunderground v.1.15,2013-01-22 20:24:00,
2013-01-22 15:25:00,9.8,6.7,30.36,NNW,328,15.0,23.0,87,0.00,,,0.00,Wunderground v.1.15,2013-01-22 20:25:00,
2013-01-22 15:26:00,9.8,6.7,30.36,NNW,331,18.0,23.0,87,0.00,,,0.00,Wunderground v.1.15,2013-01-22 20:26:00,
2013-01-22 15:29:00,9.9,6.8,30.36,NNW,344,18.0,22.0,87,0.00,,,0.00,Wunderground v.1.15,2013-01-22 20:29:00,
2013-01-22 15:30:00,10.1,7.0,30.36,NW,315,16.0,22.0,87,0.00,,,0.00,Wunderground v.1.15,2013-01-22 20:30:00,
2013-01-22 15:31:00,10.2,7.1,30.36,NW,317,18.0,22.0,87,0.00,,,0.00,Wunderground v.1.15,2013-01-22 20:31:00,
2013-01-22 15:34:00,10.4,6.8,30.37,NW,319,16.0,22.0,85,0.00,,,0.00,Wunderground v.1.15,2013-01-22 20:34:00,
2013-01-22 15:35:00,10.4,6.8,30.37,NNW,331,15.0,22.0,85,0.00,,,0.00,Wunderground v.1.15,2013-01-22 20:35:00,
2013-01-22 15:36:00,10.4,6.8,30.36,NW,319,14.0,22.0,85,0.00,,,0.00,Wunderground v.1.15,2013-01-22 20:36:00,
2013-01-22 15:40:00,10.3,6.4,30.36,NNW,331,20.0,22.0,84,0.00,,,0.00,Wunderground v.1.15,2013-01-22 20:40:00,
2013-01-22 15:41:00,10.3,6.7,30.36,NW,317,16.0,22.0,85,0.00,,,0.00,Wunderground v.1.15,2013-01-22 20:41:00,
2013-01-22 15:42:00,10.4,6.8,30.37,NNW,336,16.0,22.0,85,0.00,,,0.00,Wunderground v.1.15,2013-01-22 20:42:00,
2013-01-22 15:45:00,10.3,6.9,30.37,NNW,331,14.0,22.0,86,0.00,,,0.00,Wunderground v.1.15,2013-01-22 20:45:00,
2013-01-22 15:46:00,10.3,6.9,30.37,NNW,327,15.0,22.0,86,0.00,,,0.00,Wunderground v.1.15,2013-01-22 20:46:00,
2013-01-22 15:47:00,10.3,6.9,30.37,NW,313,20.0,22.0,86,0.00,,,0.00,Wunderground v.1.15,2013-01-22 20:47:00,
2013-01-22 15:48:00,10.2,6.8,30.37,NNW,343,17.0,22.0,86,0.00,,,0.00,Wunderground v.1.15,2013-01-22 20:48:00,
2013-01-22 15:51:00,10.4,7.3,30.36,NNW,331,19.0,23.0,87,0.00,,,0.00,Wunderground v.1.15,2013-01-22 20:51:00,
2013-01-22 15:52:00,10.5,7.4,30.36,NNW,344,24.0,24.0,87,0.00,,,0.00,Wunderground v.1.15,2013-01-22 20:52:00,
2013-01-22 15:54:00,10.5,7.1,30.36,NW,323,19.0,24.0,86,0.00,,,0.00,Wunderground v.1.15,2013-01-22 20:54:00,
2013-01-22 15:56:00,10.4,7.0,30.37,NW,311,19.0,24.0,86,0.00,,,0.00,Wunderground v.1.15,2013-01-22 20:56:00,
2013-01-22 15:57:00,10.3,6.9,30.37,NNW,327,13.0,24.0,86,0.00,,,0.00,Wunderground v.1.15,2013-01-22 20:57:00,
2013-01-22 15:59:00,10.4,7.3,30.36,NW,314,16.0,18.0,87,0.00,,,0.00,Wunderground v.1.15,2013-01-22 20:59:00,
2013-01-22 16:01:00,10.3,7.2,30.37,NW,304,17.0,21.0,87,0.00,,,0.00,Wunderground v.1.15,2013-01-22 21:01:00,
2013-01-22 16:02:00,10.5,7.1,30.36,North,355,20.0,21.0,86,0.00,,,0.00,Wunderground v.1.15,2013-01-22 21:02:00,
2013-01-22 16:04:00,10.4,7.0,30.37,NW,314,11.0,21.0,86,0.00,,,0.00,Wunderground v.1.15,2013-01-22 21:04:00,
2013-01-22 16:07:00,10.4,7.3,30.36,NNW,336,13.0,21.0,87,0.00,,,0.00,Wunderground v.1.15,2013-01-22 21:07:00,
2013-01-22 16:08:00,10.4,7.3,30.36,NW,318,14.0,21.0,87,0.00,,,0.00,Wunderground v.1.15,2013-01-22 21:08:00,
2013-01-22 16:09:00,10.6,7.7,30.36,NW,321,20.0,23.0,88,0.00,,,0.00,Wunderground v.1.15,2013-01-22 21:09:00,
2013-01-22 16:13:00,11.1,8.0,30.36,NW,318,20.0,26.0,87,0.00,,,0.00,Wunderground v.1.15,2013-01-22 21:13:00,
2013-01-22 16:15:00,11.0,7.9,30.36,NNW,348,20.0,26.0,87,0.00,,,0.00,Wunderground v.1.15,2013-01-22 21:15:00,
2013-01-22 16:18:00,10.9,7.8,30.36,NNW,334,24.0,24.0,87,0.00,,,0.00,Wunderground v.1.15,2013-01-22 21:18:00,
2013-01-22 16:19:00,10.9,8.0,30.36,NNW,338,22.0,24.0,88,0.00,,,0.00,Wunderground v.1.15,2013-01-22 21:19:00,
2013-01-22 16:20:00,10.8,7.7,30.36,NW,325,18.0,24.0,87,0.00,,,0.00,Wunderground v.1.15,2013-01-22 21:20:00,
2013-01-22 16:23:00,11.0,7.9,30.36,North,349,23.0,25.0,87,0.00,,,0.00,Wunderground v.1.15,2013-01-22 21:23:00,
2013-01-22 16:24:00,11.0,7.9,30.36,NW,323,22.0,26.0,87,0.00,,,0.00,Wunderground v.1.15,2013-01-22 21:24:00,
2013-01-22 16:25:00,11.0,7.9,30.36,NNW,340,15.0,26.0,87,0.00,,,0.00,Wunderground v.1.15,2013-01-22 21:25:00,
2013-01-22 16:29:00,11.0,7.9,30.36,NW,315,19.0,24.0,87,0.00,,,0.00,Wunderground v.1.15,2013-01-22 21:29:00,
2013-01-22 16:30:00,10.8,7.4,30.37,NW,311,23.0,24.0,86,0.00,,,0.00,Wunderground v.1.15,2013-01-22 21:30:00,
2013-01-22 16:31:00,10.9,7.5,30.36,NW,323,19.0,24.0,86,0.00,,,0.00,Wunderground v.1.15,2013-01-22 21:31:00,
2013-01-22 16:34:00,11.0,7.6,30.36,NNW,337,21.0,25.0,86,0.00,,,0.00,Wunderground v.1.15,2013-01-22 21:34:00,
2013-01-22 16:35:00,11.1,7.5,30.36,NNW,327,20.0,25.0,85,0.00,,,0.00,Wunderground v.1.15,2013-01-22 21:35:00,
2013-01-22 16:36:00,11.1,7.7,30.36,NW,323,21.0,25.0,86,0.00,,,0.00,Wunderground v.1.15,2013-01-22 21:36:00,
2013-01-22 16:40:00,11.3,8.2,30.37,NNW,331,18.0,23.0,87,0.00,,,0.00,Wunderground v.1.15,2013-01-22 21:40:00,
2013-01-22 16:41:00,11.2,7.8,30.37,NNW,333,18.0,23.0,86,0.00,,,0.00,Wunderground v.1.15,2013-01-22 21:41:00,
2013-01-22 16:46:00,10.7,7.3,30.36,NW,311,19.0,23.0,86,0.00,,,0.00,Wunderground v.1.15,2013-01-22 21:46:00,
2013-01-22 16:47:00,10.7,7.3,30.37,WNW,298,15.0,23.0,86,0.00,,,0.00,Wunderground v.1.15,2013-01-22 21:47:00,
2013-01-22 16:51:00,10.7,7.6,30.36,NNW,332,17.0,18.0,87,0.00,,,0.00,Wunderground v.1.15,2013-01-22 21:51:00,
2013-01-22 16:52:00,10.9,8.0,30.36,NW,322,22.0,24.0,88,0.00,,,0.00,Wunderground v.1.15,2013-01-22 21:52:00,
2013-01-22 16:56:00,11.2,8.3,30.36,NNW,345,18.0,25.0,88,0.00,,,0.00,Wunderground v.1.15,2013-01-22 21:56:00,
2013-01-22 16:57:00,11.1,8.2,30.37,NW,317,17.0,25.0,88,0.00,,,0.00,Wunderground v.1.15,2013-01-22 21:57:00,
2013-01-22 16:58:00,11.0,8.1,30.37,NW,315,20.0,25.0,88,0.00,,,0.00,Wunderground v.1.15,2013-01-22 21:58:00,
2013-01-22 17:01:00,11.1,8.2,30.36,NW,322,21.0,21.0,88,0.00,,,0.00,Wunderground v.1.15,2013-01-22 22:01:00,
2013-01-22 17:02:00,11.2,8.3,30.36,WNW,302,15.0,21.0,88,0.00,,,0.00,Wunderground v.1.15,2013-01-22 22:02:00,
2013-01-22 17:03:00,11.2,8.3,30.36,NW,321,15.0,24.0,88,0.00,,,0.00,Wunderground v.1.15,2013-01-22 22:03:00,
2013-01-22 17:07:00,11.4,8.5,30.36,NW,321,22.0,26.0,88,0.00,,,0.00,Wunderground v.1.15,2013-01-22 22:07:00,
2013-01-22 17:08:00,11.3,8.4,30.36,NW,325,22.0,26.0,88,0.00,,,0.00,Wunderground v.1.15,2013-01-22 22:08:00,
2013-01-22 17:09:00,11.2,8.3,30.36,NW,320,18.0,22.0,88,0.00,,,0.00,Wunderground v.1.15,2013-01-22 22:09:00,
2013-01-22 17:12:00,11.3,8.4,30.36,NNW,333,21.0,22.0,88,0.00,,,0.00,Wunderground v.1.15,2013-01-22 22:12:00,
2013-01-22 17:13:00,11.3,8.4,30.36,NW,325,19.0,22.0,88,0.00,,,0.00,Wunderground v.1.15,2013-01-22 22:13:00,
2013-01-22 17:14:00,11.5,8.6,30.36,NW,325,20.0,24.0,88,0.00,,,0.00,Wunderground v.1.15,2013-01-22 22:14:00,
2013-01-22 17:17:00,11.8,8.2,30.36,NNW,329,20.0,27.0,85,0.00,,,0.00,Wunderground v.1.15,2013-01-22 22:17:00,
2013-01-22 17:18:00,11.7,8.1,30.36,NW,325,21.0,27.0,85,0.00,,,0.00,Wunderground v.1.15,2013-01-22 22:18:00,
2013-01-22 17:19:00,11.7,8.1,30.36,NNW,329,27.0,27.0,85,0.00,,,0.00,Wunderground v.1.15,2013-01-22 22:19:00,
2013-01-22 17:22:00,12.0,8.6,30.36,NW,325,21.0,27.0,86,0.00,,,0.00,Wunderground v.1.15,2013-01-22 22:22:00,
2013-01-22 17:23:00,12.0,8.6,30.37,NW,322,18.0,27.0,86,0.00,,,0.00,Wunderground v.1.15,2013-01-22 22:23:00,
2013-01-22 17:24:00,11.9,8.3,30.36,NW,323,19.0,27.0,85,0.00,,,0.00,Wunderground v.1.15,2013-01-22 22:24:00,
2013-01-22 17:25:00,11.9,8.3,30.36,NNW,327,26.0,29.0,85,0.00,,,0.00,Wunderground v.1.15,2013-01-22 22:25:00,
2013-01-22 17:27:00,12.1,8.2,30.36,NW,326,21.0,29.0,84,0.00,,,0.00,Wunderground v.1.15,2013-01-22 22:27:00,
2013-01-22 17:28:00,12.1,8.2,30.36,NNW,338,20.0,21.0,84,0.00,,,0.00,Wunderground v.1.15,2013-01-22 22:28:00,
2013-01-22 17:30:00,12.1,7.9,30.36,NW,311,21.0,24.0,83,0.00,,,0.00,Wunderground v.1.15,2013-01-22 22:30:00,
2013-01-22 17:33:00,12.0,8.6,30.37,NW,316,19.0,26.0,86,0.00,,,0.00,Wunderground v.1.15,2013-01-22 22:33:00,
2013-01-22 17:34:00,12.0,8.9,30.36,NNW,336,19.0,26.0,87,0.00,,,0.00,Wunderground v.1.15,2013-01-22 22:34:00,
2013-01-22 17:35:00,12.1,9.0,30.36,NNW,338,23.0,26.0,87,0.00,,,0.00,Wunderground v.1.15,2013-01-22 22:35:00,
2013-01-22 17:36:00,12.1,9.0,30.37,NW,322,21.0,26.0,87,0.00,,,0.00,Wunderground v.1.15,2013-01-22 22:36:00,
2013-01-22 17:38:00,12.2,9.1,30.37,NW,315,19.0,26.0,87,0.00,,,0.00,Wunderground v.1.15,2013-01-22 22:38:00,
2013-01-22 17:39:00,12.2,9.1,30.36,NW,309,24.0,27.0,87,0.00,,,0.00,Wunderground v.1.15,2013-01-22 22:39:00,
2013-01-22 17:41:00,12.4,9.3,30.36,NNW,342,24.0,27.0,87,0.00,,,0.00,Wunderground v.1.15,2013-01-22 22:41:00,
2013-01-22 17:42:00,12.5,9.4,30.36,North,350,19.0,27.0,87,0.00,,,0.00,Wunderground v.1.15,2013-01-22 22:42:00,
2013-01-22 17:43:00,12.3,8.9,30.36,NNW,345,22.0,27.0,86,0.00,,,0.00,Wunderground v.1.15,2013-01-22 22:43:00,
2013-01-22 17:44:00,12.3,8.9,30.36,NW,322,22.0,27.0,86,0.00,,,0.00,Wunderground v.1.15,2013-01-22 22:44:00,
2013-01-22 17:46:00,12.3,9.2,30.36,NNW,334,25.0,27.0,87,0.00,,,0.00,Wunderground v.1.15,2013-01-22 22:46:00,
2013-01-22 17:47:00,12.2,9.1,30.36,NW,319,22.0,27.0,87,0.00,,,0.00,Wunderground v.1.15,2013-01-22 22:47:00,
2013-01-22 17:49:00,12.2,9.3,30.36,NW,319,21.0,25.0,88,0.00,,,0.00,Wunderground v.1.15,2013-01-22 22:49:00,
2013-01-22 17:50:00,12.2,9.3,30.36,NNW,346,23.0,25.0,88,0.00,,,0.00,Wunderground v.1.15,2013-01-22 22:50:00,
2013-01-22 17:51:00,12.1,9.0,30.36,NNW,336,23.0,25.0,87,0.00,,,0.00,Wunderground v.1.15,2013-01-22 22:51:00,
2013-01-22 17:52:00,12.1,9.0,30.36,NW,318,17.0,25.0,87,0.00,,,0.00,Wunderground v.1.15,2013-01-22 22:52:00,
2013-01-22 17:54:00,12.1,9.0,30.36,NNW,331,25.0,25.0,87,0.00,,,0.00,Wunderground v.1.15,2013-01-22 22:54:00,
2013-01-22 17:55:00,12.2,8.8,30.36,NNW,329,23.0,25.0,86,0.00,,,0.00,Wunderground v.1.15,2013-01-22 22:55:00,
2013-01-22 17:57:00,12.3,8.9,30.36,NNW,343,22.0,25.0,86,0.00,,,0.00,Wunderground v.1.15,2013-01-22 22:57:00,
2013-01-22 17:58:00,12.2,8.8,30.36,NNW,339,19.0,25.0,86,0.00,,,0.00,Wunderground v.1.15,2013-01-22 22:58:00,
2013-01-22 17:59:00,12.2,8.8,30.36,NNW,331,19.0,24.0,86,0.00,,,0.00,Wunderground v.1.15,2013-01-22 22:59:00,
2013-01-22 18:00:00,12.2,8.8,30.36,NNW,329,24.0,24.0,86,0.00,,,0.00,Wunderground v.1.15,2013-01-22 23:00:00,
2013-01-22 18:03:00,12.2,8.6,30.36,WNW,303,16.0,24.0,85,0.00,,,0.00,Wunderground v.1.15,2013-01-22 23:03:00,
2013-01-22 18:04:00,12.1,8.5,30.36,NW,314,23.0,27.0,85,0.00,,,0.00,Wunderground v.1.15,2013-01-22 23:04:00,
2013-01-22 18:05:00,12.3,8.7,30.36,NW,323,21.0,27.0,85,0.00,,,0.00,Wunderground v.1.15,2013-01-22 23:05:00,
2013-01-22 18:08:00,12.5,8.8,30.36,NNW,334,19.0,27.0,85,0.00,,,0.00,Wunderground v.1.15,2013-01-22 23:08:00,
2013-01-22 18:10:00,12.5,8.8,30.36,NW,320,16.0,21.0,85,0.00,,,0.00,Wunderground v.1.15,2013-01-22 23:10:00,
2013-01-22 18:11:00,12.5,9.1,30.36,NNW,333,18.0,23.0,86,0.00,,,0.00,Wunderground v.1.15,2013-01-22 23:11:00,
2013-01-22 18:13:00,12.4,8.7,30.36,NNW,340,17.0,23.0,85,0.00,,,0.00,Wunderground v.1.15,2013-01-22 23:13:00,
2013-01-22 18:15:00,12.2,8.6,30.36,NNW,333,21.0,23.0,85,0.00,,,0.00,Wunderground v.1.15,2013-01-22 23:15:00,
2013-01-22 18:17:00,12.2,8.6,30.36,NW,323,27.0,27.0,85,0.00,,,0.00,Wunderground v.1.15,2013-01-22 23:17:00,
2013-01-22 18:18:00,12.3,8.9,30.36,NNW,333,23.0,27.0,86,0.00,,,0.00,Wunderground v.1.15,2013-01-22 23:18:00,
2013-01-22 18:19:00,12.4,9.0,30.36,NNW,340,22.0,22.0,86,0.00,,,0.00,Wunderground v.1.15,2013-01-22 23:19:00,
2013-01-22 18:20:00,12.7,9.6,30.36,NW,320,19.0,27.0,87,0.00,,,0.00,Wunderground v.1.15,2013-01-22 23:20:00,
2013-01-22 18:22:00,12.6,9.5,30.36,NNW,329,22.0,27.0,87,0.00,,,0.00,Wunderground v.1.15,2013-01-22 23:22:00,
2013-01-22 18:24:00,12.4,8.7,30.36,NNW,331,19.0,27.0,85,0.00,,,0.00,Wunderground v.1.15,2013-01-22 23:24:00,
2013-01-22 18:25:00,12.4,8.7,30.36,NNW,329,24.0,27.0,85,0.00,,,0.00,Wunderground v.1.15,2013-01-22 23:25:00,
2013-01-22 18:27:00,12.6,9.2,30.36,NNW,330,23.0,27.0,86,0.00,,,0.00,Wunderground v.1.15,2013-01-22 23:27:00,
2013-01-22 18:29:00,12.5,8.8,30.36,NNW,332,23.0,26.0,85,0.00,,,0.00,Wunderground v.1.15,2013-01-22 23:29:00,
2013-01-22 18:30:00,12.3,8.7,30.36,NNW,336,19.0,26.0,85,0.00,,,0.00,Wunderground v.1.15,2013-01-22 23:30:00,
2013-01-22 18:31:00,12.4,9.0,30.36,NW,310,17.0,26.0,86,0.00,,,0.00,Wunderground v.1.15,2013-01-22 23:31:00,
2013-01-22 18:32:00,12.4,9.0,30.36,NW,310,17.0,26.0,86,0.00,,,0.00,Wunderground v.1.15,2013-01-22 23:32:00,
2013-01-22 18:34:00,12.3,8.7,30.36,NNW,342,19.0,26.0,85,0.00,,,0.00,Wunderground v.1.15,2013-01-22 23:34:00,
2013-01-22 18:35:00,12.7,9.3,30.35,North,355,18.0,27.0,86,0.00,,,0.00,Wunderground v.1.15,2013-01-22 23:35:00,
2013-01-22 18:37:00,12.7,9.0,30.35,NNW,331,20.0,27.0,85,0.00,,,0.00,Wunderground v.1.15,2013-01-22 23:37:00,
2013-01-22 18:39:00,13.1,9.4,30.36,NNW,345,22.0,22.0,85,0.00,,,0.00,Wunderground v.1.15,2013-01-22 23:39:00,
2013-01-22 18:40:00,13.1,9.4,30.36,NNW,337,20.0,27.0,85,0.00,,,0.00,Wunderground v.1.15,2013-01-22 23:40:00,
2013-01-22 18:42:00,13.0,9.3,30.36,NNW,338,17.0,27.0,85,0.00,,,0.00,Wunderground v.1.15,2013-01-22 23:42:00,
2013-01-22 18:44:00,12.8,9.4,30.36,NNW,333,21.0,27.0,86,0.00,,,0.00,Wunderground v.1.15,2013-01-22 23:44:00,
2013-01-22 18:46:00,12.7,9.3,30.36,NNW,327,29.0,29.0,86,0.00,,,0.00,Wunderground v.1.15,2013-01-22 23:46:00,
2013-01-22 18:48:00,12.5,8.8,30.36,NW,326,22.0,29.0,85,0.00,,,0.00,Wunderground v.1.15,2013-01-22 23:48:00,
2013-01-22 18:49:00,12.6,8.7,30.36,NW,324,19.0,27.0,84,0.00,,,0.00,Wunderground v.1.15,2013-01-22 23:49:00,
2013-01-22 18:52:00,12.9,9.2,30.36,NW,315,23.0,27.0,85,0.00,,,0.00,Wunderground v.1.15,2013-01-22 23:52:00,
2013-01-22 18:53:00,12.9,9.0,30.36,North,350,20.0,27.0,84,0.00,,,0.00,Wunderground v.1.15,2013-01-22 23:53:00,
2013-01-22 18:54:00,12.9,9.0,30.36,NNW,330,23.0,27.0,84,0.00,,,0.00,Wunderground v.1.15,2013-01-22 23:54:00,
2013-01-22 18:57:00,12.8,8.9,30.36,NW,315,21.0,27.0,84,0.00,,,0.00,Wunderground v.1.15,2013-01-22 23:57:00,
2013-01-22 18:58:00,12.8,9.1,30.35,NNW,329,26.0,28.0,85,0.00,,,0.00,Wunderground v.1.15,2013-01-22 23:58:00,
2013-01-22 18:59:00,13.0,9.1,30.36,NNW,340,23.0,27.0,84,0.00,,,0.00,Wunderground v.1.15,2013-01-22 23:59:00,
2013-01-22 19:02:00,12.9,8.4,30.36,NW,325,23.0,27.0,82,0.00,,,0.00,Wunderground v.1.15,2013-01-23 00:02:00,
2013-01-22 19:03:00,13.0,8.5,30.35,NNW,340,21.0,28.0,82,0.00,,,0.00,Wunderground v.1.15,2013-01-23 00:03:00,
2013-01-22 19:04:00,13.0,8.5,30.35,North,9,20.0,28.0,82,0.00,,,0.00,Wunderground v.1.15,2013-01-23 00:04:00,
2013-01-22 19:08:00,13.2,8.5,30.35,NNW,345,20.0,28.0,81,0.00,,,0.00,Wunderground v.1.15,2013-01-23 00:08:00,
2013-01-22 19:09:00,13.0,8.0,30.36,NW,317,14.0,21.0,80,0.00,,,0.00,Wunderground v.1.15,2013-01-23 00:09:00,
2013-01-22 19:10:00,13.1,8.4,30.36,NW,321,21.0,22.0,81,0.00,,,0.00,Wunderground v.1.15,2013-01-23 00:10:00,
2013-01-22 19:13:00,13.2,8.2,30.36,NW,322,21.0,25.0,80,0.00,,,0.00,Wunderground v.1.15,2013-01-23 00:13:00,
2013-01-22 19:14:00,13.3,8.3,30.36,NW,325,21.0,25.0,80,0.00,,,0.00,Wunderground v.1.15,2013-01-23 00:14:00,
2013-01-22 19:15:00,13.3,8.0,30.36,NW,319,18.0,25.0,79,0.00,,,0.00,Wunderground v.1.15,2013-01-23 00:15:00,
2013-01-22 19:18:00,13.2,7.6,30.36,NNW,338,15.0,26.0,78,0.00,,,0.00,Wunderground v.1.15,2013-01-23 00:18:00,
2013-01-22 19:19:00,13.0,7.4,30.36,NNW,346,17.0,20.0,78,0.00,,,0.00,Wunderground v.1.15,2013-01-23 00:19:00,
2013-01-22 19:21:00,13.0,8.0,30.36,NW,322,19.0,22.0,80,0.00,,,0.00,Wunderground v.1.15,2013-01-23 00:21:00,
2013-01-22 19:23:00,13.1,8.1,30.36,NW,326,22.0,23.0,80,0.00,,,0.00,Wunderground v.1.15,2013-01-23 00:23:00,
2013-01-22 19:24:00,13.2,8.2,30.36,NNW,336,22.0,24.0,80,0.00,,,0.00,Wunderground v.1.15,2013-01-23 00:24:00,
2013-01-22 19:25:00,13.2,8.2,30.36,NW,325,23.0,24.0,80,0.00,,,0.00,Wunderground v.1.15,2013-01-23 00:25:00,
2013-01-22 19:26:00,13.4,8.7,30.36,NW,323,19.0,27.0,81,0.00,,,0.00,Wunderground v.1.15,2013-01-23 00:26:00,
2013-01-22 19:28:00,13.5,7.9,30.36,NNW,348,22.0,22.0,78,0.00,,,0.00,Wunderground v.1.15,2013-01-23 00:28:00,
2013-01-22 19:30:00,13.4,7.2,30.35,NNW,336,20.0,25.0,76,0.00,,,0.00,Wunderground v.1.15,2013-01-23 00:30:00,
2013-01-22 19:32:00,13.3,7.1,30.35,NNW,340,24.0,26.0,76,0.00,,,0.00,Wunderground v.1.15,2013-01-23 00:32:00,
2013-01-22 19:33:00,13.2,6.8,30.35,NW,319,19.0,26.0,75,0.00,,,0.00,Wunderground v.1.15,2013-01-23 00:33:00,
2013-01-22 19:35:00,13.2,6.8,30.36,NNW,347,17.0,26.0,75,0.00,,,0.00,Wunderground v.1.15,2013-01-23 00:35:00,
2013-01-22 19:37:00,13.2,7.0,30.35,NNW,344,24.0,26.0,76,0.00,,,0.00,Wunderground v.1.15,2013-01-23 00:37:00,
2013-01-22 19:39:00,13.2,6.8,30.35,North,360,15.0,21.0,75,0.00,,,0.00,Wunderground v.1.15,2013-01-23 00:39:00,
2013-01-22 19:40:00,13.2,6.5,30.36,NW,325,17.0,23.0,74,0.00,,,0.00,Wunderground v.1.15,2013-01-23 00:40:00,
2013-01-22 19:42:00,13.4,7.2,30.35,NNW,333,18.0,24.0,76,0.00,,,0.00,Wunderground v.1.15,2013-01-23 00:42:00,
2013-01-22 19:44:00,13.4,7.8,30.35,NW,315,15.0,24.0,78,0.00,,,0.00,Wunderground v.1.15,2013-01-23 00:44:00,
2013-01-22 19:45:00,13.4,7.8,30.35,NNW,329,18.0,26.0,78,0.00,,,0.00,Wunderground v.1.15,2013-01-23 00:45:00,
2013-01-22 19:47:00,13.3,7.1,30.35,NW,325,21.0,26.0,76,0.00,,,0.00,Wunderground v.1.15,2013-01-23 00:47:00,
2013-01-22 19:49:00,13.3,7.4,30.35,NNW,334,16.0,19.0,77,0.00,,,0.00,Wunderground v.1.15,2013-01-23 00:49:00,
2013-01-22 19:50:00,13.2,7.6,30.35,NNW,335,16.0,19.0,78,0.00,,,0.00,Wunderground v.1.15,2013-01-23 00:50:00,
2013-01-22 19:53:00,13.1,7.0,30.35,NNW,331,17.0,23.0,76,0.00,,,0.00,Wunderground v.1.15,2013-01-23 00:53:00,
2013-01-22 19:55:00,13.1,7.2,30.35,NW,324,21.0,23.0,77,0.00,,,0.00,Wunderground v.1.15,2013-01-23 00:55:00,
2013-01-22 19:56:00,13.3,7.7,30.35,NNW,343,20.0,27.0,78,0.00,,,0.00,Wunderground v.1.15,2013-01-23 00:56:00,
2013-01-22 19:58:00,13.4,7.8,30.35,NNW,344,19.0,27.0,78,0.00,,,0.00,Wunderground v.1.15,2013-01-23 00:58:00,
2013-01-22 20:00:00,13.5,7.9,30.35,NNW,340,20.0,26.0,78,0.00,,,0.00,Wunderground v.1.15,2013-01-23 01:00:00,
2013-01-22 20:01:00,13.3,7.7,30.35,NNW,338,16.0,26.0,78,0.00,,,0.00,Wunderground v.1.15,2013-01-23 01:01:00,
2013-01-22 20:03:00,13.2,7.9,30.35,NNW,342,21.0,26.0,79,0.00,,,0.00,Wunderground v.1.15,2013-01-23 01:03:00,
2013-01-22 20:05:00,13.5,8.5,30.35,NNW,342,21.0,26.0,80,0.00,,,0.00,Wunderground v.1.15,2013-01-23 01:05:00,
2013-01-22 20:07:00,13.4,8.1,30.35,NW,321,21.0,26.0,79,0.00,,,0.00,Wunderground v.1.15,2013-01-23 01:07:00,
2013-01-22 20:09:00,13.5,9.3,30.35,NNW,337,22.0,23.0,83,0.00,,,0.00,Wunderground v.1.15,2013-01-23 01:09:00,
2013-01-22 20:10:00,13.5,9.0,30.35,NNW,342,18.0,24.0,82,0.00,,,0.00,Wunderground v.1.15,2013-01-23 01:10:00,
2013-01-22 20:12:00,13.6,9.7,30.35,NNW,336,20.0,24.0,84,0.00,,,0.00,Wunderground v.1.15,2013-01-23 01:12:00,
2013-01-22 20:14:00,13.6,9.4,30.35,North,355,23.0,29.0,83,0.00,,,0.00,Wunderground v.1.15,2013-01-23 01:14:00,
2013-01-22 20:15:00,13.6,9.4,30.35,NNW,336,17.0,29.0,83,0.00,,,0.00,Wunderground v.1.15,2013-01-23 01:15:00,
2013-01-22 20:17:00,13.8,9.3,30.35,NNE,14,23.0,29.0,82,0.00,,,0.00,Wunderground v.1.15,2013-01-23 01:17:00,
2013-01-22 20:19:00,13.7,8.7,30.35,NNW,345,25.0,29.0,80,0.00,,,0.00,Wunderground v.1.15,2013-01-23 01:19:00,
2013-01-22 20:20:00,13.8,9.0,30.35,NNW,338,19.0,29.0,81,0.00,,,0.00,Wunderground v.1.15,2013-01-23 01:20:00,
2013-01-22 20:23:00,13.5,8.8,30.35,NW,310,20.0,29.0,81,0.00,,,0.00,Wunderground v.1.15,2013-01-23 01:23:00,
2013-01-22 20:24:00,13.3,8.8,30.35,North,350,20.0,29.0,82,0.00,,,0.00,Wunderground v.1.15,2013-01-23 01:24:00,
2013-01-22 20:25:00,13.3,9.4,30.35,North,355,22.0,29.0,84,0.00,,,0.00,Wunderground v.1.15,2013-01-23 01:25:00,
2013-01-22 20:28:00,13.4,9.2,30.35,NNW,340,24.0,32.0,83,0.00,,,0.00,Wunderground v.1.15,2013-01-23 01:28:00,
2013-01-22 20:29:00,13.6,9.7,30.35,NNW,340,26.0,27.0,84,0.00,,,0.00,Wunderground v.1.15,2013-01-23 01:29:00,
2013-01-22 20:30:00,13.6,9.4,30.35,North,360,25.0,27.0,83,0.00,,,0.00,Wunderground v.1.15,2013-01-23 01:30:00,
2013-01-22 20:31:00,13.6,9.4,30.35,NNW,348,28.0,29.0,83,0.00,,,0.00,Wunderground v.1.15,2013-01-23 01:31:00,
2013-01-22 20:33:00,13.8,9.6,30.35,NNW,344,21.0,29.0,83,0.00,,,0.00,Wunderground v.1.15,2013-01-23 01:33:00,
2013-01-22 20:35:00,13.8,9.6,30.35,North,9,23.0,29.0,83,0.00,,,0.00,Wunderground v.1.15,2013-01-23 01:35:00,
2013-01-22 20:36:00,13.6,9.7,30.35,North,351,16.0,29.0,84,0.00,,,0.00,Wunderground v.1.15,2013-01-23 01:36:00,
2013-01-22 20:38:00,13.5,9.6,30.35,North,360,21.0,29.0,84,0.00,,,0.00,Wunderground v.1.15,2013-01-23 01:38:00,
2013-01-22 20:40:00,13.4,9.5,30.35,NNW,334,24.0,30.0,84,0.00,,,0.00,Wunderground v.1.15,2013-01-23 01:40:00,
2013-01-22 20:41:00,13.6,9.9,30.34,North,355,18.0,30.0,85,0.00,,,0.00,Wunderground v.1.15,2013-01-23 01:41:00,
2013-01-22 20:43:00,13.5,9.8,30.35,North,355,19.0,30.0,85,0.00,,,0.00,Wunderground v.1.15,2013-01-23 01:43:00,
2013-01-22 20:45:00,13.2,9.3,30.35,NNW,337,22.0,30.0,84,0.00,,,0.00,Wunderground v.1.15,2013-01-23 01:45:00,
2013-01-22 20:47:00,13.5,9.8,30.35,NNW,336,20.0,30.0,85,0.00,,,0.00,Wunderground v.1.15,2013-01-23 01:47:00,
2013-01-22 20:48:00,13.4,9.7,30.35,NNW,343,22.0,30.0,85,0.00,,,0.00,Wunderground v.1.15,2013-01-23 01:48:00,
2013-01-22 20:50:00,13.6,9.9,30.35,NW,324,20.0,21.0,85,0.00,,,0.00,Wunderground v.1.15,2013-01-23 01:50:00,
2013-01-22 20:51:00,13.7,10.3,30.34,NNW,347,24.0,26.0,86,0.00,,,0.00,Wunderground v.1.15,2013-01-23 01:51:00,
2013-01-22 20:52:00,13.5,9.6,30.35,NNW,334,23.0,26.0,84,0.00,,,0.00,Wunderground v.1.15,2013-01-23 01:52:00,
2013-01-22 20:53:00,13.6,9.7,30.34,NNW,337,25.0,26.0,84,0.00,,,0.00,Wunderground v.1.15,2013-01-23 01:53:00,
2013-01-22 20:55:00,13.7,9.5,30.34,NNW,348,21.0,26.0,83,0.00,,,0.00,Wunderground v.1.15,2013-01-23 01:55:00,
2013-01-22 20:56:00,13.7,9.2,30.35,NNW,337,22.0,26.0,82,0.00,,,0.00,Wunderground v.1.15,2013-01-23 01:56:00,
2013-01-22 20:58:00,13.6,9.1,30.35,North,360,18.0,27.0,82,0.00,,,0.00,Wunderground v.1.15,2013-01-23 01:58:00,
2013-01-22 20:59:00,13.6,9.7,30.34,North,11,16.0,21.0,84,0.00,,,0.00,Wunderground v.1.15,2013-01-23 01:59:00,
2013-01-22 21:01:00,13.5,9.6,30.35,North,349,17.0,21.0,84,0.00,,,0.00,Wunderground v.1.15,2013-01-23 02:01:00,
2013-01-22 21:03:00,13.6,9.7,30.35,North,10,18.0,23.0,84,0.00,,,0.00,Wunderground v.1.15,2013-01-23 02:03:00,
2013-01-22 21:04:00,13.9,10.2,30.35,NW,317,20.0,23.0,85,0.00,,,0.00,Wunderground v.1.15,2013-01-23 02:04:00,
2013-01-22 21:06:00,14.1,10.4,30.35,NNE,14,19.0,26.0,85,0.00,,,0.00,Wunderground v.1.15,2013-01-23 02:06:00,
2013-01-22 21:07:00,14.1,10.4,30.35,NNW,344,17.0,26.0,85,0.00,,,0.00,Wunderground v.1.15,2013-01-23 02:07:00,
2013-01-22 21:09:00,14.1,10.4,30.34,North,355,23.0,24.0,85,0.00,,,0.00,Wunderground v.1.15,2013-01-23 02:09:00,
2013-01-22 21:12:00,13.9,8.9,30.34,North,350,21.0,25.0,80,0.00,,,0.00,Wunderground v.1.15,2013-01-23 02:12:00,
2013-01-22 21:14:00,14.0,9.0,30.34,NNW,342,21.0,25.0,80,0.00,,,0.00,Wunderground v.1.15,2013-01-23 02:14:00,
2013-01-22 21:15:00,14.0,9.0,30.34,NNE,15,16.0,25.0,80,0.00,,,0.00,Wunderground v.1.15,2013-01-23 02:15:00,
2013-01-22 21:18:00,14.2,9.4,30.34,NNW,338,25.0,26.0,81,0.00,,,0.00,Wunderground v.1.15,2013-01-23 02:18:00,
2013-01-22 21:19:00,14.1,10.2,30.35,North,349,21.0,23.0,84,0.00,,,0.00,Wunderground v.1.15,2013-01-23 02:19:00,
2013-01-22 21:20:00,14.1,10.2,30.35,NW,325,19.0,23.0,84,0.00,,,0.00,Wunderground v.1.15,2013-01-23 02:20:00,
2013-01-22 21:23:00,14.0,10.1,30.35,NNW,336,20.0,23.0,84,0.00,,,0.00,Wunderground v.1.15,2013-01-23 02:23:00,
2013-01-22 21:25:00,14.0,10.1,30.35,NNW,333,25.0,26.0,84,0.00,,,0.00,Wunderground v.1.15,2013-01-23 02:25:00,
2013-01-22 21:28:00,13.8,9.6,30.35,NNW,329,21.0,26.0,83,0.00,,,0.00,Wunderground v.1.15,2013-01-23 02:28:00,
2013-01-22 21:30:00,13.7,9.8,30.35,NNW,337,19.0,23.0,84,0.00,,,0.00,Wunderground v.1.15,2013-01-23 02:30:00,
2013-01-22 21:33:00,13.9,10.2,30.35,North,360,17.0,23.0,85,0.00,,,0.00,Wunderground v.1.15,2013-01-23 02:33:00,
2013-01-22 21:34:00,14.0,10.1,30.34,NNW,343,18.0,23.0,84,0.00,,,0.00,Wunderground v.1.15,2013-01-23 02:34:00,
2013-01-22 21:35:00,14.2,9.7,30.34,NNW,348,27.0,27.0,82,0.00,,,0.00,Wunderground v.1.15,2013-01-23 02:35:00,
2013-01-22 21:37:00,14.2,9.2,30.34,NNW,330,22.0,27.0,80,0.00,,,0.00,Wunderground v.1.15,2013-01-23 02:37:00,
2013-01-22 21:38:00,14.4,10.2,30.34,NNW,338,25.0,27.0,83,0.00,,,0.00,Wunderground v.1.15,2013-01-23 02:38:00,
2013-01-22 21:40:00,14.3,10.1,30.34,NNW,348,22.0,25.0,83,0.00,,,0.00,Wunderground v.1.15,2013-01-23 02:40:00,
2013-01-22 21:42:00,14.1,9.9,30.34,NNW,342,20.0,26.0,83,0.00,,,0.00,Wunderground v.1.15,2013-01-23 02:42:00,
2013-01-22 21:43:00,14.1,9.9,30.34,NNW,347,22.0,28.0,83,0.00,,,0.00,Wunderground v.1.15,2013-01-23 02:43:00,
2013-01-22 21:45:00,14.1,10.2,30.34,NNW,348,25.0,28.0,84,0.00,,,0.00,Wunderground v.1.15,2013-01-23 02:45:00,
2013-01-22 21:46:00,14.1,10.2,30.34,North,349,22.0,28.0,84,0.00,,,0.00,Wunderground v.1.15,2013-01-23 02:46:00,
2013-01-22 21:47:00,14.1,10.2,30.35,NNW,348,24.0,28.0,84,0.00,,,0.00,Wunderground v.1.15,2013-01-23 02:47:00,
2013-01-22 21:49:00,14.1,10.4,30.35,NNW,347,26.0,26.0,85,0.00,,,0.00,Wunderground v.1.15,2013-01-23 02:49:00,
2013-01-22 21:51:00,14.0,10.3,30.35,NNW,334,17.0,29.0,85,0.00,,,0.00,Wunderground v.1.15,2013-01-23 02:51:00,
2013-01-22 21:52:00,13.9,10.2,30.35,North,355,21.0,29.0,85,0.00,,,0.00,Wunderground v.1.15,2013-01-23 02:52:00,
2013-01-22 21:54:00,14.1,10.7,30.35,North,9,21.0,29.0,86,0.00,,,0.00,Wunderground v.1.15,2013-01-23 02:54:00,
2013-01-22 21:56:00,14.1,10.7,30.34,NNW,333,24.0,29.0,86,0.00,,,0.00,Wunderground v.1.15,2013-01-23 02:56:00,
2013-01-22 21:57:00,14.3,11.1,30.35,North,9,23.0,29.0,87,0.00,,,0.00,Wunderground v.1.15,2013-01-23 02:57:00,
2013-01-22 21:59:00,14.0,11.1,30.35,NNW,342,22.0,28.0,88,0.00,,,0.00,Wunderground v.1.15,2013-01-23 02:59:00,
2013-01-22 22:01:00,13.8,10.9,30.35,NW,314,23.0,28.0,88,0.00,,,0.00,Wunderground v.1.15,2013-01-23 03:01:00,
2013-01-22 22:02:00,14.1,11.5,30.35,North,360,25.0,28.0,89,0.00,,,0.00,Wunderground v.1.15,2013-01-23 03:02:00,
2013-01-22 22:03:00,14.1,11.5,30.35,North,350,21.0,28.0,89,0.00,,,0.00,Wunderground v.1.15,2013-01-23 03:03:00,
2013-01-22 22:04:00,13.9,11.0,30.35,NNW,327,23.0,28.0,88,0.00,,,0.00,Wunderground v.1.15,2013-01-23 03:04:00,
2013-01-22 22:07:00,13.5,10.4,30.35,NNW,348,19.0,28.0,87,0.00,,,0.00,Wunderground v.1.15,2013-01-23 03:07:00,
2013-01-22 22:08:00,13.5,10.4,30.35,NNW,333,18.0,28.0,87,0.00,,,0.00,Wunderground v.1.15,2013-01-23 03:08:00,
2013-01-22 22:09:00,13.6,10.7,30.35,NW,317,27.0,27.0,88,0.00,,,0.00,Wunderground v.1.15,2013-01-23 03:09:00,
2013-01-22 22:12:00,13.9,11.0,30.35,NNW,343,26.0,28.0,88,0.00,,,0.00,Wunderground v.1.15,2013-01-23 03:12:00,
2013-01-22 22:13:00,13.9,11.0,30.35,NNW,342,25.0,28.0,88,0.00,,,0.00,Wunderground v.1.15,2013-01-23 03:13:00,
2013-01-22 22:14:00,13.7,10.8,30.35,NNW,346,17.0,28.0,88,0.00,,,0.00,Wunderground v.1.15,2013-01-23 03:14:00,
2013-01-22 22:18:00,13.5,10.6,30.35,North,351,18.0,28.0,88,0.00,,,0.00,Wunderground v.1.15,2013-01-23 03:18:00,
2013-01-22 22:19:00,13.4,10.5,30.35,NW,319,20.0,27.0,88,0.00,,,0.00,Wunderground v.1.15,2013-01-23 03:19:00,
2013-01-22 22:23:00,13.7,10.8,30.35,NNW,340,21.0,27.0,88,0.00,,,0.00,Wunderground v.1.15,2013-01-23 03:23:00,
2013-01-22 22:24:00,13.8,10.9,30.35,NNW,341,20.0,27.0,88,0.00,,,0.00,Wunderground v.1.15,2013-01-23 03:24:00,
2013-01-22 22:25:00,13.8,11.2,30.35,North,355,19.0,27.0,89,0.00,,,0.00,Wunderground v.1.15,2013-01-23 03:25:00,
2013-01-22 22:28:00,13.8,11.2,30.35,North,349,20.0,21.0,89,0.00,,,0.00,Wunderground v.1.15,2013-01-23 03:28:00,
2013-01-22 22:29:00,13.8,11.2,30.35,NW,326,25.0,25.0,89,0.00,,,0.00,Wunderground v.1.15,2013-01-23 03:29:00,
2013-01-22 22:30:00,13.7,10.8,30.35,NNW,330,19.0,25.0,88,0.00,,,0.00,Wunderground v.1.15,2013-01-23 03:30:00,
2013-01-22 22:33:00,13.9,11.3,30.35,North,360,24.0,29.0,89,0.00,,,0.00,Wunderground v.1.15,2013-01-23 03:33:00,
2013-01-22 22:34:00,13.8,10.9,30.35,NNW,337,25.0,30.0,88,0.00,,,0.00,Wunderground v.1.15,2013-01-23 03:34:00,
2013-01-22 22:35:00,13.7,10.8,30.35,NNW,346,24.0,30.0,88,0.00,,,0.00,Wunderground v.1.15,2013-01-23 03:35:00,
2013-01-22 22:38:00,13.8,10.9,30.35,NNW,331,24.0,24.0,88,0.00,,,0.00,Wunderground v.1.15,2013-01-23 03:38:00,
2013-01-22 22:39:00,13.9,11.0,30.35,NNW,348,24.0,27.0,88,0.00,,,0.00,Wunderground v.1.15,2013-01-23 03:39:00,
2013-01-22 22:40:00,13.9,11.0,30.35,North,360,22.0,27.0,88,0.00,,,0.00,Wunderground v.1.15,2013-01-23 03:40:00,
2013-01-22 22:44:00,13.9,10.5,30.36,NNW,346,21.0,27.0,86,0.00,,,0.00,Wunderground v.1.15,2013-01-23 03:44:00,
2013-01-22 22:45:00,13.9,10.5,30.36,North,355,23.0,27.0,86,0.00,,,0.00,Wunderground v.1.15,2013-01-23 03:45:00,
2013-01-22 22:49:00,14.1,10.7,30.36,North,355,28.0,28.0,86,0.00,,,0.00,Wunderground v.1.15,2013-01-23 03:49:00,
2013-01-22 22:50:00,14.1,10.7,30.36,North,9,20.0,28.0,86,0.00,,,0.00,Wunderground v.1.15,2013-01-23 03:50:00,
2013-01-22 22:51:00,14.0,10.6,30.36,NNW,345,22.0,28.0,86,0.00,,,0.00,Wunderground v.1.15,2013-01-23 03:51:00,
2013-01-22 22:54:00,13.7,10.3,30.36,NNW,346,20.0,28.0,86,0.00,,,0.00,Wunderground v.1.15,2013-01-23 03:54:00,
2013-01-22 22:55:00,13.7,10.3,30.36,North,9,23.0,28.0,86,0.00,,,0.00,Wunderground v.1.15,2013-01-23 03:55:00,
2013-01-22 22:56:00,13.8,10.4,30.36,NNW,337,22.0,28.0,86,0.00,,,0.00,Wunderground v.1.15,2013-01-23 03:56:00,
2013-01-22 23:00:00,14.0,10.3,30.36,NNW,343,23.0,27.0,85,0.00,,,0.00,Wunderground v.1.15,2013-01-23 04:00:00,
2013-01-22 23:01:00,14.1,10.7,30.36,NNW,346,21.0,27.0,86,0.00,,,0.00,Wunderground v.1.15,2013-01-23 04:01:00,
2013-01-22 23:02:00,14.0,10.6,30.36,NNW,333,21.0,27.0,86,0.00,,,0.00,Wunderground v.1.15,2013-01-23 04:02:00,
2013-01-22 23:05:00,13.9,10.0,30.36,North,355,21.0,27.0,84,0.00,,,0.00,Wunderground v.1.15,2013-01-23 04:05:00,
2013-01-22 23:06:00,14.0,9.8,30.36,NNW,346,20.0,27.0,83,0.00,,,0.00,Wunderground v.1.15,2013-01-23 04:06:00,
2013-01-22 23:07:00,13.9,9.4,30.36,North,355,20.0,27.0,82,0.00,,,0.00,Wunderground v.1.15,2013-01-23 04:07:00,
2013-01-22 23:10:00,14.1,9.6,30.36,NNW,333,23.0,26.0,82,0.00,,,0.00,Wunderground v.1.15,2013-01-23 04:10:00,
2013-01-22 23:11:00,14.1,9.6,30.36,NNW,344,21.0,26.0,82,0.00,,,0.00,Wunderground v.1.15,2013-01-23 04:11:00,
2013-01-22 23:12:00,14.3,9.8,30.36,NNW,327,27.0,27.0,82,0.00,,,0.00,Wunderground v.1.15,2013-01-23 04:12:00,
2013-01-22 23:13:00,14.2,9.7,30.36,NNW,338,23.0,27.0,82,0.00,,,0.00,Wunderground v.1.15,2013-01-23 04:13:00,
2013-01-22 23:15:00,14.1,9.3,30.36,North,355,20.0,27.0,81,0.00,,,0.00,Wunderground v.1.15,2013-01-23 04:15:00,
2013-01-22 23:16:00,14.2,9.7,30.36,North,355,24.0,27.0,82,0.00,,,0.00,Wunderground v.1.15,2013-01-23 04:16:00,
2013-01-22 23:17:00,14.3,10.1,30.36,North,350,25.0,27.0,83,0.00,,,0.00,Wunderground v.1.15,2013-01-23 04:17:00,
2013-01-22 23:18:00,14.3,9.8,30.36,NNW,337,22.0,23.0,82,0.00,,,0.00,Wunderground v.1.15,2013-01-23 04:18:00,
2013-01-22 23:20:00,14.2,9.7,30.36,NNE,14,19.0,26.0,82,0.00,,,0.00,Wunderground v.1.15,2013-01-23 04:20:00,
2013-01-22 23:22:00,14.0,9.8,30.37,NNW,336,28.0,28.0,83,0.00,,,0.00,Wunderground v.1.15,2013-01-23 04:22:00,
2013-01-22 23:23:00,14.1,9.9,30.37,NNW,340,19.0,28.0,83,0.00,,,0.00,Wunderground v.1.15,2013-01-23 04:23:00,
2013-01-22 23:25:00,14.1,9.6,30.37,NNE,14,21.0,28.0,82,0.00,,,0.00,Wunderground v.1.15,2013-01-23 04:25:00,
2013-01-22 23:27:00,14.1,9.3,30.37,NW,325,24.0,28.0,81,0.00,,,0.00,Wunderground v.1.15,2013-01-23 04:27:00,
2013-01-22 23:28:00,14.1,9.3,30.37,NNW,338,19.0,28.0,81,0.00,,,0.00,Wunderground v.1.15,2013-01-23 04:28:00,
2013-01-22 23:29:00,14.1,9.1,30.36,North,355,22.0,23.0,80,0.00,,,0.00,Wunderground v.1.15,2013-01-23 04:29:00,
2013-01-22 23:30:00,14.2,9.7,30.37,NNW,333,21.0,24.0,82,0.00,,,0.00,Wunderground v.1.15,2013-01-23 04:30:00,
2013-01-22 23:32:00,14.1,9.3,30.37,NNW,334,22.0,25.0,81,0.00,,,0.00,Wunderground v.1.15,2013-01-23 04:32:00,
2013-01-22 23:33:00,14.1,9.6,30.37,NNW,340,21.0,25.0,82,0.00,,,0.00,Wunderground v.1.15,2013-01-23 04:33:00,
2013-01-22 23:34:00,14.1,9.6,30.37,North,355,25.0,27.0,82,0.00,,,0.00,Wunderground v.1.15,2013-01-23 04:34:00,
2013-01-22 23:36:00,14.2,9.7,30.37,NNW,332,24.0,27.0,82,0.00,,,0.00,Wunderground v.1.15,2013-01-23 04:36:00,
2013-01-22 23:37:00,14.2,10.0,30.37,NNW,338,24.0,27.0,83,0.00,,,0.00,Wunderground v.1.15,2013-01-23 04:37:00,
2013-01-22 23:38:00,14.2,10.3,30.37,North,349,21.0,28.0,84,0.00,,,0.00,Wunderground v.1.15,2013-01-23 04:38:00,
2013-01-22 23:39:00,14.3,10.4,30.37,NNW,334,19.0,25.0,84,0.00,,,0.00,Wunderground v.1.15,2013-01-23 04:39:00,
2013-01-22 23:42:00,14.3,10.4,30.37,NNW,340,21.0,29.0,84,0.00,,,0.00,Wunderground v.1.15,2013-01-23 04:42:00,
2013-01-22 23:44:00,14.4,10.4,30.37,NNW,334,22.0,29.0,84,0.00,,,0.00,Wunderground v.1.15,2013-01-23 04:44:00,
2013-01-22 23:47:00,14.3,9.5,30.37,North,9,19.0,29.0,81,0.00,,,0.00,Wunderground v.1.15,2013-01-23 04:47:00,
2013-01-22 23:49:00,14.5,10.3,30.37,North,9,23.0,27.0,83,0.00,,,0.00,Wunderground v.1.15,2013-01-23 04:49:00,
2013-01-22 23:50:00,14.5,10.0,30.37,NNW,333,21.0,27.0,82,0.00,,,0.00,Wunderground v.1.15,2013-01-23 04:50:00,
2013-01-22 23:52:00,14.3,9.3,30.37,North,360,27.0,28.0,80,0.00,,,0.00,Wunderground v.1.15,2013-01-23 04:52:00,
2013-01-22 23:53:00,14.3,9.3,30.37,NNW,337,23.0,28.0,80,0.00,,,0.00,Wunderground v.1.15,2013-01-23 04:53:00,
2013-01-22 23:54:00,14.4,9.1,30.37,NNE,14,23.0,28.0,79,0.00,,,0.00,Wunderground v.1.15,2013-01-23 04:54:00,
2013-01-22 23:55:00,14.3,9.5,30.37,North,355,20.0,28.0,81,0.00,,,0.00,Wunderground v.1.15,2013-01-23 04:55:00,
2013-01-22 23:57:00,14.3,10.1,30.37,North,9,20.0,28.0,83,0.00,,,0.00,Wunderground v.1.15,2013-01-23 04:57:00,
2013-01-22 23:58:00,14.3,10.4,30.37,North,360,23.0,28.0,84,0.00,,,0.00,Wunderground v.1.15,2013-01-23 04:58:00,